Time,TemperatureF,DewpointF,PressureIn,WindDirection,WindDirectionDegrees,WindSpeedMPH,WindSpeedGustMPH,Humidity,HourlyPrecipIn,Conditions,Clouds,dailyrainin,SoftwareType,DateUTC
2013-10-11 00:00:00,61.0,51.1,29.79,ESE,107,9.0,9.0,70,0.00,,,0.00,Wunderground v.1.13,2013-10-11 05:00:00,
2013-10-11 00:01:00,61.0,50.8,29.79,ESE,123,9.0,9.0,69,0.00,,,0.00,Wunderground v.1.13,2013-10-11 05:01:00,
2013-10-11 00:02:00,61.0,51.1,29.79,ESE,121,9.0,9.0,70,0.00,,,0.00,Wunderground v.1.13,2013-10-11 05:02:00,
2013-10-11 00:03:00,61.0,51.1,29.79,ESE,103,9.0,10.0,70,0.00,,,0.00,Wunderground v.1.13,2013-10-11 05:03:00,
2013-10-11 00:04:00,61.0,51.1,29.79,ESE,115,9.0,10.0,70,0.00,,,0.00,Wunderground v.1.13,2013-10-11 05:04:00,
2013-10-11 00:06:00,60.9,51.0,29.79,ESE,119,9.0,9.0,70,0.00,,,0.00,Wunderground v.1.13,2013-10-11 05:06:00,
2013-10-11 00:10:00,60.9,51.0,29.79,ESE,122,9.0,13.0,70,0.00,,,0.00,Wunderground v.1.13,2013-10-11 05:10:00,
2013-10-11 00:11:00,60.9,51.0,29.79,ESE,109,9.0,13.0,70,0.00,,,0.00,Wunderground v.1.13,2013-10-11 05:11:00,
2013-10-11 00:13:00,60.9,51.0,29.79,ESE,109,10.0,13.0,70,0.00,,,0.00,Wunderground v.1.13,2013-10-11 05:13:00,
2013-10-11 00:15:00,60.9,51.0,29.79,East,101,10.0,10.0,70,0.00,,,0.00,Wunderground v.1.13,2013-10-11 05:15:00,
2013-10-11 00:16:00,60.8,51.0,29.79,ESE,118,10.0,11.0,70,0.00,,,0.00,Wunderground v.1.13,2013-10-11 05:16:00,
2013-10-11 00:21:00,60.8,51.3,29.79,SE,136,9.0,9.0,71,0.00,,,0.00,Wunderground v.1.13,2013-10-11 05:21:00,
2013-10-11 00:22:00,60.7,50.9,29.79,ESE,114,9.0,11.0,70,0.00,,,0.00,Wunderground v.1.13,2013-10-11 05:22:00,
2013-10-11 00:23:00,60.7,51.2,29.79,ESE,115,9.0,13.0,71,0.00,,,0.00,Wunderground v.1.13,2013-10-11 05:23:00,
2013-10-11 00:24:00,60.7,50.9,29.79,ESE,111,9.0,13.0,70,0.00,,,0.00,Wunderground v.1.13,2013-10-11 05:24:00,
2013-10-11 00:25:00,60.7,50.9,29.79,ESE,118,9.0,10.0,70,0.00,,,0.00,Wunderground v.1.13,2013-10-11 05:25:00,
2013-10-11 00:26:00,60.7,51.2,29.79,ESE,102,10.0,11.0,71,0.00,,,0.00,Wunderground v.1.13,2013-10-11 05:26:00,
2013-10-11 00:28:00,60.7,51.2,29.79,ESE,116,10.0,16.0,71,0.00,,,0.00,Wunderground v.1.13,2013-10-11 05:28:00,
2013-10-11 00:30:00,60.7,51.2,29.79,ESE,111,10.0,10.0,71,0.00,,,0.00,Wunderground v.1.13,2013-10-11 05:30:00,
2013-10-11 00:32:00,60.7,51.2,29.79,ESE,103,10.0,14.0,71,0.00,,,0.00,Wunderground v.1.13,2013-10-11 05:32:00,
2013-10-11 00:33:00,60.7,51.2,29.79,East,98,10.0,14.0,71,0.00,,,0.00,Wunderground v.1.13,2013-10-11 05:33:00,
2013-10-11 00:36:00,60.7,51.2,29.79,East,98,10.0,10.0,71,0.00,,,0.00,Wunderground v.1.13,2013-10-11 05:36:00,
2013-10-11 00:37:00,60.6,51.1,29.79,ESE,115,10.0,10.0,71,0.00,,,0.00,Wunderground v.1.13,2013-10-11 05:37:00,
2013-10-11 00:39:00,60.6,51.1,29.79,ESE,121,10.0,12.0,71,0.00,,,0.00,Wunderground v.1.13,2013-10-11 05:39:00,
2013-10-11 00:42:00,60.7,50.9,29.79,ESE,116,10.0,14.0,70,0.00,,,0.00,Wunderground v.1.13,2013-10-11 05:42:00,
2013-10-11 00:43:00,60.6,51.1,29.79,ESE,115,10.0,14.0,71,0.00,,,0.00,Wunderground v.1.13,2013-10-11 05:43:00,
2013-10-11 00:44:00,60.6,51.1,29.79,ESE,121,10.0,14.0,71,0.00,,,0.00,Wunderground v.1.13,2013-10-11 05:44:00,
2013-10-11 00:45:00,60.7,51.2,29.79,ESE,115,10.0,11.0,71,0.00,,,0.00,Wunderground v.1.13,2013-10-11 05:45:00,
2013-10-11 00:48:00,60.6,51.1,29.79,East,101,10.0,12.0,71,0.00,,,0.00,Wunderground v.1.13,2013-10-11 05:48:00,
2013-10-11 00:49:00,60.7,50.9,29.79,ESE,110,10.0,12.0,70,0.00,,,0.00,Wunderground v.1.13,2013-10-11 05:49:00,
2013-10-11 00:53:00,60.7,50.9,29.79,ESE,110,10.0,14.0,70,0.00,,,0.00,Wunderground v.1.13,2013-10-11 05:53:00,
2013-10-11 00:54:00,60.7,51.2,29.79,ESE,109,10.0,14.0,71,0.00,,,0.00,Wunderground v.1.13,2013-10-11 05:54:00,
2013-10-11 00:56:00,60.6,51.1,29.79,ESE,103,10.0,12.0,71,0.00,,,0.00,Wunderground v.1.13,2013-10-11 05:56:00,
2013-10-11 00:57:00,60.6,51.1,29.79,ESE,117,10.0,12.0,71,0.00,,,0.00,Wunderground v.1.13,2013-10-11 05:57:00,
2013-10-11 00:58:00,60.5,51.0,29.79,ESE,111,10.0,12.0,71,0.00,,,0.00,Wunderground v.1.13,2013-10-11 05:58:00,
2013-10-11 01:00:00,60.4,51.0,29.79,ESE,113,10.0,10.0,71,0.00,,,0.00,Wunderground v.1.13,2013-10-11 06:00:00,
2013-10-11 01:01:00,60.4,51.0,29.79,ESE,121,10.0,10.0,71,0.00,,,0.00,Wunderground v.1.13,2013-10-11 06:01:00,
2013-10-11 01:02:00,60.4,51.3,29.79,ESE,122,9.0,10.0,72,0.00,,,0.00,Wunderground v.1.13,2013-10-11 06:02:00,
2013-10-11 01:03:00,60.3,50.9,29.79,ESE,121,9.0,10.0,71,0.00,,,0.00,Wunderground v.1.13,2013-10-11 06:03:00,
2013-10-11 01:04:00,60.3,50.9,29.79,ESE,121,9.0,10.0,71,0.00,,,0.00,Wunderground v.1.13,2013-10-11 06:04:00,
2013-10-11 01:05:00,60.3,50.9,29.80,ESE,115,9.0,9.0,71,0.00,,,0.00,Wunderground v.1.13,2013-10-11 06:05:00,
2013-10-11 01:10:00,60.2,51.1,29.79,ESE,111,8.0,9.0,72,0.00,,,0.00,Wunderground v.1.13,2013-10-11 06:10:00,
2013-10-11 01:11:00,60.2,50.8,29.79,ESE,105,8.0,13.0,71,0.00,,,0.00,Wunderground v.1.13,2013-10-11 06:11:00,
2013-10-11 01:12:00,60.1,50.7,29.79,ESE,117,8.0,13.0,71,0.00,,,0.00,Wunderground v.1.13,2013-10-11 06:12:00,
2013-10-11 01:14:00,60.0,50.9,29.79,ESE,115,8.0,13.0,72,0.00,,,0.00,Wunderground v.1.13,2013-10-11 06:14:00,
2013-10-11 01:16:00,60.0,51.3,29.79,East,98,8.0,9.0,73,0.00,,,0.00,Wunderground v.1.13,2013-10-11 06:16:00,
2013-10-11 01:18:00,59.9,50.8,29.79,ESE,114,8.0,12.0,72,0.00,,,0.00,Wunderground v.1.13,2013-10-11 06:18:00,
2013-10-11 01:19:00,59.9,51.2,29.79,ESE,106,8.0,12.0,73,0.00,,,0.00,Wunderground v.1.13,2013-10-11 06:19:00,
2013-10-11 01:23:00,59.8,51.1,29.79,ESE,111,8.0,10.0,73,0.00,,,0.00,Wunderground v.1.13,2013-10-11 06:23:00,
2013-10-11 01:24:00,59.8,51.1,29.79,ESE,117,8.0,10.0,73,0.00,,,0.00,Wunderground v.1.13,2013-10-11 06:24:00,
2013-10-11 01:25:00,59.8,50.8,29.79,ESE,113,8.0,8.0,72,0.00,,,0.00,Wunderground v.1.13,2013-10-11 06:25:00,
2013-10-11 01:28:00,59.7,50.7,29.79,East,90,9.0,10.0,72,0.00,,,0.00,Wunderground v.1.13,2013-10-11 06:28:00,
2013-10-11 01:29:00,59.7,51.0,29.79,ESE,117,9.0,12.0,73,0.00,,,0.00,Wunderground v.1.13,2013-10-11 06:29:00,
2013-10-11 01:31:00,59.6,50.9,29.79,ESE,107,8.0,8.0,73,0.00,,,0.00,Wunderground v.1.13,2013-10-11 06:31:00,
2013-10-11 01:33:00,59.5,50.8,29.80,ESE,122,8.0,11.0,73,0.00,,,0.00,Wunderground v.1.13,2013-10-11 06:33:00,
2013-10-11 01:36:00,59.4,51.1,29.79,ESE,111,7.0,9.0,74,0.00,,,0.00,Wunderground v.1.13,2013-10-11 06:36:00,
2013-10-11 01:37:00,59.4,51.1,29.80,ESE,113,7.0,9.0,74,0.00,,,0.00,Wunderground v.1.13,2013-10-11 06:37:00,
2013-10-11 01:38:00,59.4,50.7,29.79,SE,126,7.0,9.0,73,0.00,,,0.00,Wunderground v.1.13,2013-10-11 06:38:00,
2013-10-11 01:39:00,59.4,50.7,29.79,ESE,102,7.0,11.0,73,0.00,,,0.00,Wunderground v.1.13,2013-10-11 06:39:00,
2013-10-11 01:42:00,59.4,50.7,29.79,ESE,121,8.0,9.0,73,0.00,,,0.00,Wunderground v.1.13,2013-10-11 06:42:00,
2013-10-11 01:43:00,59.4,50.7,29.80,ESE,109,8.0,9.0,73,0.00,,,0.00,Wunderground v.1.13,2013-10-11 06:43:00,
2013-10-11 01:44:00,59.4,51.1,29.80,ESE,115,8.0,9.0,74,0.00,,,0.00,Wunderground v.1.13,2013-10-11 06:44:00,
2013-10-11 01:49:00,59.4,50.7,29.79,ESE,107,8.0,10.0,73,0.00,,,0.00,Wunderground v.1.13,2013-10-11 06:49:00,
2013-10-11 01:50:00,59.4,50.7,29.79,ESE,115,8.0,8.0,73,0.00,,,0.00,Wunderground v.1.13,2013-10-11 06:50:00,
2013-10-11 01:51:00,59.4,51.1,29.79,East,95,8.0,8.0,74,0.00,,,0.00,Wunderground v.1.13,2013-10-11 06:51:00,
2013-10-11 01:55:00,59.4,51.1,29.79,ESE,113,8.0,8.0,74,0.00,,,0.00,Wunderground v.1.13,2013-10-11 06:55:00,
2013-10-11 01:56:00,59.4,51.1,29.79,ESE,108,8.0,8.0,74,0.00,,,0.00,Wunderground v.1.13,2013-10-11 06:56:00,
2013-10-11 01:57:00,59.4,51.1,29.79,ESE,111,8.0,10.0,74,0.00,,,0.00,Wunderground v.1.13,2013-10-11 06:57:00,
2013-10-11 02:00:00,59.4,51.1,29.79,ESE,117,9.0,10.0,74,0.00,,,0.00,Wunderground v.1.13,2013-10-11 07:00:00,
2013-10-11 02:01:00,59.4,51.1,29.79,ESE,105,9.0,10.0,74,0.00,,,0.00,Wunderground v.1.13,2013-10-11 07:01:00,
2013-10-11 02:03:00,59.4,51.1,29.79,SE,124,9.0,14.0,74,0.00,,,0.00,Wunderground v.1.13,2013-10-11 07:03:00,
2013-10-11 02:05:00,59.4,51.5,29.79,ESE,117,9.0,11.0,75,0.00,,,0.00,Wunderground v.1.13,2013-10-11 07:05:00,
2013-10-11 02:06:00,59.4,51.1,29.79,ESE,103,9.0,11.0,74,0.00,,,0.00,Wunderground v.1.13,2013-10-11 07:06:00,
2013-10-11 02:07:00,59.4,51.1,29.79,ESE,117,9.0,11.0,74,0.00,,,0.00,Wunderground v.1.13,2013-10-11 07:07:00,
2013-10-11 02:08:00,59.4,51.1,29.79,ESE,115,9.0,11.0,74,0.00,,,0.00,Wunderground v.1.13,2013-10-11 07:08:00,
2013-10-11 02:10:00,59.4,51.1,29.79,ESE,119,9.0,9.0,74,0.00,,,0.00,Wunderground v.1.13,2013-10-11 07:10:00,
2013-10-11 02:12:00,59.4,50.7,29.79,ESE,117,9.0,9.0,73,0.00,,,0.00,Wunderground v.1.13,2013-10-11 07:12:00,
2013-10-11 02:14:00,59.4,51.1,29.79,ESE,111,9.0,9.0,74,0.00,,,0.00,Wunderground v.1.13,2013-10-11 07:14:00,
2013-10-11 02:15:00,59.4,51.1,29.79,ESE,109,9.0,10.0,74,0.00,,,0.00,Wunderground v.1.13,2013-10-11 07:15:00,
2013-10-11 02:16:00,59.4,51.1,29.79,ESE,111,9.0,10.0,74,0.00,,,0.00,Wunderground v.1.13,2013-10-11 07:16:00,
2013-10-11 02:17:00,59.4,51.1,29.79,ESE,119,9.0,10.0,74,0.00,,,0.00,Wunderground v.1.13,2013-10-11 07:17:00,
2013-10-11 02:19:00,59.4,51.1,29.79,ESE,114,8.0,10.0,74,0.00,,,0.00,Wunderground v.1.13,2013-10-11 07:19:00,
2013-10-11 02:21:00,59.4,51.1,29.79,ESE,116,8.0,8.0,74,0.00,,,0.00,Wunderground v.1.13,2013-10-11 07:21:00,
2013-10-11 02:22:00,59.4,51.1,29.80,ESE,113,8.0,8.0,74,0.00,,,0.00,Wunderground v.1.13,2013-10-11 07:22:00,
2013-10-11 02:23:00,59.4,51.1,29.80,ESE,107,8.0,8.0,74,0.00,,,0.00,Wunderground v.1.13,2013-10-11 07:23:00,
2013-10-11 02:26:00,59.4,50.7,29.80,ESE,116,8.0,11.0,73,0.00,,,0.00,Wunderground v.1.13,2013-10-11 07:26:00,
2013-10-11 02:28:00,59.5,51.2,29.79,ESE,114,7.0,11.0,74,0.00,,,0.00,Wunderground v.1.13,2013-10-11 07:28:00,
2013-10-11 02:29:00,59.6,51.3,29.79,East,101,7.0,11.0,74,0.00,,,0.00,Wunderground v.1.13,2013-10-11 07:29:00,
2013-10-11 02:33:00,59.7,51.0,29.79,ESE,117,8.0,8.0,73,0.00,,,0.00,Wunderground v.1.13,2013-10-11 07:33:00,
2013-10-11 02:34:00,59.7,51.4,29.79,ESE,109,8.0,8.0,74,0.00,,,0.00,Wunderground v.1.13,2013-10-11 07:34:00,
2013-10-11 02:36:00,59.7,51.4,29.80,ESE,117,8.0,9.0,74,0.00,,,0.00,Wunderground v.1.13,2013-10-11 07:36:00,
2013-10-11 02:37:00,59.7,51.4,29.80,ESE,110,8.0,9.0,74,0.00,,,0.00,Wunderground v.1.13,2013-10-11 07:37:00,
2013-10-11 02:39:00,59.6,51.3,29.80,ESE,113,8.0,9.0,74,0.00,,,0.00,Wunderground v.1.13,2013-10-11 07:39:00,
2013-10-11 02:41:00,59.6,51.3,29.79,ESE,118,8.0,9.0,74,0.00,,,0.00,Wunderground v.1.13,2013-10-11 07:41:00,
2013-10-11 02:43:00,59.6,50.9,29.80,SE,128,8.0,10.0,73,0.00,,,0.00,Wunderground v.1.13,2013-10-11 07:43:00,
2013-10-11 02:44:00,59.5,51.2,29.80,ESE,115,8.0,10.0,74,0.00,,,0.00,Wunderground v.1.13,2013-10-11 07:44:00,
2013-10-11 02:45:00,59.5,50.8,29.80,ESE,110,8.0,10.0,73,0.00,,,0.00,Wunderground v.1.13,2013-10-11 07:45:00,
2013-10-11 02:48:00,59.6,51.3,29.80,ESE,118,8.0,10.0,74,0.00,,,0.00,Wunderground v.1.13,2013-10-11 07:48:00,
2013-10-11 02:49:00,59.5,51.2,29.79,ESE,115,8.0,10.0,74,0.00,,,0.00,Wunderground v.1.13,2013-10-11 07:49:00,
2013-10-11 02:50:00,59.5,51.2,29.79,ESE,119,8.0,8.0,74,0.00,,,0.00,Wunderground v.1.13,2013-10-11 07:50:00,
2013-10-11 02:53:00,59.4,50.7,29.79,East,99,8.0,11.0,73,0.00,,,0.00,Wunderground v.1.13,2013-10-11 07:53:00,
2013-10-11 02:55:00,59.4,51.1,29.79,ESE,104,8.0,8.0,74,0.00,,,0.00,Wunderground v.1.13,2013-10-11 07:55:00,
2013-10-11 02:57:00,59.4,51.1,29.79,ESE,117,8.0,9.0,74,0.00,,,0.00,Wunderground v.1.13,2013-10-11 07:57:00,
2013-10-11 02:58:00,59.4,51.1,29.79,East,100,8.0,9.0,74,0.00,,,0.00,Wunderground v.1.13,2013-10-11 07:58:00,
2013-10-11 02:59:00,59.4,51.1,29.79,ESE,111,8.0,9.0,74,0.00,,,0.00,Wunderground v.1.13,2013-10-11 07:59:00,
2013-10-11 03:00:00,59.4,51.1,29.79,ESE,111,8.0,9.0,74,0.00,,,0.00,Wunderground v.1.13,2013-10-11 08:00:00,
2013-10-11 03:01:00,59.4,51.1,29.79,ESE,113,8.0,9.0,74,0.00,,,0.00,Wunderground v.1.13,2013-10-11 08:01:00,
2013-10-11 03:04:00,59.4,51.1,29.79,ESE,111,8.0,10.0,74,0.00,,,0.00,Wunderground v.1.13,2013-10-11 08:04:00,
2013-10-11 03:05:00,59.4,51.1,29.79,ESE,111,7.0,9.0,74,0.00,,,0.00,Wunderground v.1.13,2013-10-11 08:05:00,
2013-10-11 03:07:00,59.4,51.1,29.79,ESE,114,8.0,9.0,74,0.00,,,0.00,Wunderground v.1.13,2013-10-11 08:07:00,
2013-10-11 03:08:00,59.4,51.1,29.79,ESE,107,8.0,9.0,74,0.00,,,0.00,Wunderground v.1.13,2013-10-11 08:08:00,
2013-10-11 03:12:00,59.3,51.4,29.79,ESE,105,8.0,10.0,75,0.00,,,0.00,Wunderground v.1.13,2013-10-11 08:12:00,
2013-10-11 03:13:00,59.3,51.0,29.79,SE,129,8.0,10.0,74,0.00,,,0.00,Wunderground v.1.13,2013-10-11 08:13:00,
2013-10-11 03:14:00,59.2,50.9,29.79,ESE,115,8.0,10.0,74,0.00,,,0.00,Wunderground v.1.13,2013-10-11 08:14:00,
2013-10-11 03:15:00,59.2,50.9,29.79,ESE,119,8.0,9.0,74,0.00,,,0.00,Wunderground v.1.13,2013-10-11 08:15:00,
2013-10-11 03:18:00,59.1,50.8,29.79,ESE,114,8.0,9.0,74,0.00,,,0.00,Wunderground v.1.13,2013-10-11 08:18:00,
2013-10-11 03:21:00,59.1,50.8,29.79,ESE,121,8.0,8.0,74,0.00,,,0.00,Wunderground v.1.13,2013-10-11 08:21:00,
2013-10-11 03:23:00,59.0,50.7,29.79,ESE,113,8.0,8.0,74,0.00,,,0.00,Wunderground v.1.13,2013-10-11 08:23:00,
2013-10-11 03:24:00,59.0,51.1,29.79,East,101,8.0,8.0,75,0.00,,,0.00,Wunderground v.1.13,2013-10-11 08:24:00,
2013-10-11 03:25:00,59.0,51.1,29.79,ESE,119,8.0,9.0,75,0.00,,,0.00,Wunderground v.1.13,2013-10-11 08:25:00,
2013-10-11 03:28:00,58.9,51.0,29.79,East,99,8.0,9.0,75,0.00,,,0.00,Wunderground v.1.13,2013-10-11 08:28:00,
2013-10-11 03:29:00,58.9,51.0,29.79,ESE,105,8.0,12.0,75,0.00,,,0.00,Wunderground v.1.13,2013-10-11 08:29:00,
2013-10-11 03:30:00,58.9,50.6,29.79,East,101,8.0,11.0,74,0.00,,,0.00,Wunderground v.1.13,2013-10-11 08:30:00,
2013-10-11 03:32:00,58.9,51.0,29.79,ESE,111,8.0,11.0,75,0.00,,,0.00,Wunderground v.1.13,2013-10-11 08:32:00,
2013-10-11 03:34:00,58.9,51.0,29.79,East,99,8.0,11.0,75,0.00,,,0.00,Wunderground v.1.13,2013-10-11 08:34:00,
2013-10-11 03:36:00,58.8,50.5,29.79,East,99,8.0,10.0,74,0.00,,,0.00,Wunderground v.1.13,2013-10-11 08:36:00,
2013-10-11 03:37:00,58.8,50.5,29.79,ESE,109,8.0,10.0,74,0.00,,,0.00,Wunderground v.1.13,2013-10-11 08:37:00,
2013-10-11 03:40:00,58.8,50.9,29.79,East,84,8.0,8.0,75,0.00,,,0.00,Wunderground v.1.13,2013-10-11 08:40:00,
2013-10-11 03:41:00,58.8,50.9,29.79,ESE,111,8.0,8.0,75,0.00,,,0.00,Wunderground v.1.13,2013-10-11 08:41:00,
2013-10-11 03:42:00,58.8,50.9,29.79,East,94,8.0,8.0,75,0.00,,,0.00,Wunderground v.1.13,2013-10-11 08:42:00,
2013-10-11 03:45:00,58.7,50.8,29.79,ESE,109,8.0,10.0,75,0.00,,,0.00,Wunderground v.1.13,2013-10-11 08:45:00,
2013-10-11 03:46:00,58.7,50.8,29.79,ESE,109,8.0,10.0,75,0.00,,,0.00,Wunderground v.1.13,2013-10-11 08:46:00,
2013-10-11 03:48:00,58.6,50.7,29.79,ESE,116,8.0,10.0,75,0.00,,,0.00,Wunderground v.1.13,2013-10-11 08:48:00,
2013-10-11 03:49:00,58.6,50.7,29.79,ESE,106,8.0,10.0,75,0.00,,,0.00,Wunderground v.1.13,2013-10-11 08:49:00,
2013-10-11 03:51:00,58.6,50.7,29.79,ESE,104,8.0,8.0,75,0.00,,,0.00,Wunderground v.1.13,2013-10-11 08:51:00,
2013-10-11 03:52:00,58.6,50.7,29.79,ESE,117,8.0,8.0,75,0.00,,,0.00,Wunderground v.1.13,2013-10-11 08:52:00,
2013-10-11 03:53:00,58.5,50.6,29.79,ESE,109,8.0,8.0,75,0.00,,,0.00,Wunderground v.1.13,2013-10-11 08:53:00,
2013-10-11 03:55:00,58.5,50.6,29.79,ESE,107,8.0,8.0,75,0.00,,,0.00,Wunderground v.1.13,2013-10-11 08:55:00,
2013-10-11 03:57:00,58.5,50.6,29.79,ESE,107,8.0,9.0,75,0.00,,,0.00,Wunderground v.1.13,2013-10-11 08:57:00,
2013-10-11 03:58:00,58.5,50.6,29.79,ESE,111,8.0,9.0,75,0.00,,,0.00,Wunderground v.1.13,2013-10-11 08:58:00,
2013-10-11 03:59:00,58.5,50.6,29.79,ESE,107,8.0,9.0,75,0.00,,,0.00,Wunderground v.1.13,2013-10-11 08:59:00,
2013-10-11 04:00:00,58.5,50.6,29.79,ESE,107,8.0,8.0,75,0.00,,,0.00,Wunderground v.1.13,2013-10-11 09:00:00,
2013-10-11 04:03:00,58.5,51.0,29.79,East,85,8.0,9.0,76,0.00,,,0.00,Wunderground v.1.13,2013-10-11 09:03:00,
2013-10-11 04:04:00,58.4,50.5,29.79,East,99,7.0,10.0,75,0.00,,,0.00,Wunderground v.1.13,2013-10-11 09:04:00,
2013-10-11 04:06:00,58.4,50.5,29.79,ESE,102,7.0,11.0,75,0.00,,,0.00,Wunderground v.1.13,2013-10-11 09:06:00,
2013-10-11 04:10:00,58.4,50.5,29.79,ESE,114,8.0,10.0,75,0.00,,,0.00,Wunderground v.1.13,2013-10-11 09:10:00,
2013-10-11 04:11:00,58.4,50.5,29.79,East,100,8.0,10.0,75,0.00,,,0.00,Wunderground v.1.13,2013-10-11 09:11:00,
2013-10-11 04:12:00,58.3,50.4,29.79,East,98,8.0,13.0,75,0.00,,,0.00,Wunderground v.1.13,2013-10-11 09:12:00,
2013-10-11 04:14:00,58.3,50.8,29.79,East,92,8.0,13.0,76,0.00,,,0.00,Wunderground v.1.13,2013-10-11 09:14:00,
2013-10-11 04:15:00,58.3,50.8,29.79,ESE,109,8.0,8.0,76,0.00,,,0.00,Wunderground v.1.13,2013-10-11 09:15:00,
2013-10-11 04:19:00,58.2,50.7,29.79,East,92,8.0,9.0,76,0.00,,,0.00,Wunderground v.1.13,2013-10-11 09:19:00,
2013-10-11 04:20:00,58.2,50.7,29.79,East,98,8.0,10.0,76,0.00,,,0.00,Wunderground v.1.13,2013-10-11 09:20:00,
2013-10-11 04:21:00,58.2,50.7,29.79,East,91,8.0,10.0,76,0.00,,,0.00,Wunderground v.1.13,2013-10-11 09:21:00,
2013-10-11 04:25:00,58.2,50.7,29.79,ESE,116,7.0,7.0,76,0.00,,,0.00,Wunderground v.1.13,2013-10-11 09:25:00,
2013-10-11 04:27:00,58.1,50.6,29.79,ESE,115,8.0,8.0,76,0.00,,,0.00,Wunderground v.1.13,2013-10-11 09:27:00,
2013-10-11 04:28:00,58.1,50.6,29.79,East,85,8.0,9.0,76,0.00,,,0.00,Wunderground v.1.13,2013-10-11 09:28:00,
2013-10-11 04:30:00,58.0,50.5,29.79,East,96,8.0,8.0,76,0.00,,,0.00,Wunderground v.1.13,2013-10-11 09:30:00,
2013-10-11 04:31:00,58.0,50.5,29.79,East,90,8.0,8.0,76,0.00,,,0.00,Wunderground v.1.13,2013-10-11 09:31:00,
2013-10-11 04:34:00,57.9,50.4,29.79,ESE,113,7.0,8.0,76,0.00,,,0.00,Wunderground v.1.13,2013-10-11 09:34:00,
2013-10-11 04:35:00,57.9,50.4,29.79,ESE,105,7.0,9.0,76,0.00,,,0.00,Wunderground v.1.13,2013-10-11 09:35:00,
2013-10-11 04:37:00,57.9,50.4,29.79,ESE,121,7.0,9.0,76,0.00,,,0.00,Wunderground v.1.13,2013-10-11 09:37:00,
2013-10-11 04:40:00,57.8,50.6,29.79,ESE,106,7.0,8.0,77,0.00,,,0.00,Wunderground v.1.13,2013-10-11 09:40:00,
2013-10-11 04:41:00,57.8,50.6,29.79,East,96,7.0,8.0,77,0.00,,,0.00,Wunderground v.1.13,2013-10-11 09:41:00,
2013-10-11 04:42:00,57.8,50.6,29.79,East,96,7.0,8.0,77,0.00,,,0.00,Wunderground v.1.13,2013-10-11 09:42:00,
2013-10-11 04:43:00,57.8,50.6,29.79,ESE,117,8.0,8.0,77,0.00,,,0.00,Wunderground v.1.13,2013-10-11 09:43:00,
2013-10-11 04:46:00,57.7,50.5,29.79,ESE,103,8.0,10.0,77,0.00,,,0.00,Wunderground v.1.13,2013-10-11 09:46:00,
2013-10-11 04:47:00,57.7,50.5,29.79,ESE,103,8.0,10.0,77,0.00,,,0.00,Wunderground v.1.13,2013-10-11 09:47:00,
2013-10-11 04:49:00,57.6,50.4,29.79,ESE,109,8.0,10.0,77,0.00,,,0.00,Wunderground v.1.13,2013-10-11 09:49:00,
2013-10-11 04:52:00,57.6,50.4,29.79,ESE,117,7.0,8.0,77,0.00,,,0.00,Wunderground v.1.13,2013-10-11 09:52:00,
2013-10-11 04:53:00,57.5,50.3,29.79,ESE,113,7.0,8.0,77,0.00,,,0.00,Wunderground v.1.13,2013-10-11 09:53:00,
2013-10-11 04:54:00,57.5,50.3,29.79,East,101,7.0,8.0,77,0.00,,,0.00,Wunderground v.1.13,2013-10-11 09:54:00,
2013-10-11 04:58:00,57.4,50.6,29.79,East,100,7.0,7.0,78,0.00,,,0.00,Wunderground v.1.13,2013-10-11 09:58:00,
2013-10-11 04:59:00,57.3,50.5,29.79,ESE,112,7.0,7.0,78,0.00,,,0.00,Wunderground v.1.13,2013-10-11 09:59:00,
2013-10-11 05:00:00,57.3,50.5,29.79,ESE,104,7.0,9.0,78,0.00,,,0.00,Wunderground v.1.13,2013-10-11 10:00:00,
2013-10-11 05:01:00,57.3,50.1,29.79,ESE,121,7.0,10.0,77,0.00,,,0.00,Wunderground v.1.13,2013-10-11 10:01:00,
2013-10-11 05:03:00,57.2,50.4,29.80,East,95,7.0,10.0,78,0.00,,,0.00,Wunderground v.1.13,2013-10-11 10:03:00,
2013-10-11 05:05:00,57.2,50.4,29.80,East,92,7.0,7.0,78,0.00,,,0.00,Wunderground v.1.13,2013-10-11 10:05:00,
2013-10-11 05:07:00,57.2,50.4,29.80,East,101,7.0,8.0,78,0.00,,,0.00,Wunderground v.1.13,2013-10-11 10:07:00,
2013-10-11 05:08:00,57.2,50.4,29.80,ESE,108,7.0,8.0,78,0.00,,,0.00,Wunderground v.1.13,2013-10-11 10:08:00,
2013-10-11 05:11:00,57.2,50.4,29.80,ESE,117,7.0,9.0,78,0.00,,,0.00,Wunderground v.1.13,2013-10-11 10:11:00,
2013-10-11 05:12:00,57.1,50.3,29.80,ESE,108,7.0,9.0,78,0.00,,,0.00,Wunderground v.1.13,2013-10-11 10:12:00,
2013-10-11 05:13:00,57.1,50.3,29.80,ESE,111,7.0,9.0,78,0.00,,,0.00,Wunderground v.1.13,2013-10-11 10:13:00,
2013-10-11 05:18:00,57.0,50.2,29.80,ESE,113,8.0,10.0,78,0.00,,,0.00,Wunderground v.1.13,2013-10-11 10:18:00,
2013-10-11 05:19:00,57.0,50.2,29.80,ESE,107,8.0,11.0,78,0.00,,,0.00,Wunderground v.1.13,2013-10-11 10:19:00,
2013-10-11 05:20:00,57.0,50.2,29.80,ESE,113,8.0,9.0,78,0.00,,,0.00,Wunderground v.1.13,2013-10-11 10:20:00,
2013-10-11 05:22:00,57.0,50.2,29.79,East,101,8.0,9.0,78,0.00,,,0.00,Wunderground v.1.13,2013-10-11 10:22:00,
2013-10-11 05:24:00,57.0,50.2,29.79,East,86,8.0,9.0,78,0.00,,,0.00,Wunderground v.1.13,2013-10-11 10:24:00,
2013-10-11 05:26:00,56.9,50.1,29.80,ESE,110,8.0,10.0,78,0.00,,,0.00,Wunderground v.1.13,2013-10-11 10:26:00,
2013-10-11 05:27:00,56.9,50.5,29.80,ESE,117,8.0,10.0,79,0.00,,,0.00,Wunderground v.1.13,2013-10-11 10:27:00,
2013-10-11 05:28:00,56.9,50.1,29.80,East,99,8.0,10.0,78,0.00,,,0.00,Wunderground v.1.13,2013-10-11 10:28:00,
2013-10-11 05:29:00,56.9,50.5,29.80,East,100,8.0,10.0,79,0.00,,,0.00,Wunderground v.1.13,2013-10-11 10:29:00,
2013-10-11 05:32:00,56.8,50.4,29.80,East,101,7.0,8.0,79,0.00,,,0.00,Wunderground v.1.13,2013-10-11 10:32:00,
2013-10-11 05:33:00,56.8,50.4,29.79,SE,132,7.0,8.0,79,0.00,,,0.00,Wunderground v.1.13,2013-10-11 10:33:00,
2013-10-11 05:34:00,56.7,50.3,29.80,East,100,7.0,8.0,79,0.00,,,0.00,Wunderground v.1.13,2013-10-11 10:34:00,
2013-10-11 05:36:00,56.7,50.3,29.80,ENE,74,7.0,8.0,79,0.00,,,0.00,Wunderground v.1.13,2013-10-11 10:36:00,
2013-10-11 05:37:00,56.7,50.3,29.80,East,96,7.0,10.0,79,0.00,,,0.00,Wunderground v.1.13,2013-10-11 10:37:00,
2013-10-11 05:38:00,56.7,50.3,29.80,ESE,103,7.0,10.0,79,0.00,,,0.00,Wunderground v.1.13,2013-10-11 10:38:00,
2013-10-11 05:39:00,56.7,50.3,29.80,ESE,114,7.0,10.0,79,0.00,,,0.00,Wunderground v.1.13,2013-10-11 10:39:00,
2013-10-11 05:42:00,56.6,50.5,29.80,ESE,116,7.0,8.0,80,0.00,,,0.00,Wunderground v.1.13,2013-10-11 10:42:00,
2013-10-11 05:43:00,56.6,50.2,29.80,ESE,103,7.0,10.0,79,0.00,,,0.00,Wunderground v.1.13,2013-10-11 10:43:00,
2013-10-11 05:46:00,56.6,50.5,29.80,ESE,107,7.0,7.0,80,0.00,,,0.00,Wunderground v.1.13,2013-10-11 10:46:00,
2013-10-11 05:47:00,56.5,50.1,29.80,East,96,7.0,9.0,79,0.00,,,0.00,Wunderground v.1.13,2013-10-11 10:47:00,
2013-10-11 05:48:00,56.5,50.1,29.80,East,99,7.0,9.0,79,0.00,,,0.00,Wunderground v.1.13,2013-10-11 10:48:00,
2013-10-11 05:49:00,56.5,50.4,29.80,ESE,113,7.0,9.0,80,0.00,,,0.00,Wunderground v.1.13,2013-10-11 10:49:00,
2013-10-11 05:51:00,56.4,50.0,29.80,ESE,107,7.0,10.0,79,0.00,,,0.00,Wunderground v.1.13,2013-10-11 10:51:00,
2013-10-11 05:53:00,56.4,50.3,29.80,ESE,106,8.0,10.0,80,0.00,,,0.00,Wunderground v.1.13,2013-10-11 10:53:00,
2013-10-11 05:55:00,56.4,50.3,29.80,ESE,113,7.0,7.0,80,0.00,,,0.00,Wunderground v.1.13,2013-10-11 10:55:00,
2013-10-11 06:00:00,56.3,50.2,29.80,ESE,110,8.0,8.0,80,0.00,,,0.00,Wunderground v.1.13,2013-10-11 11:00:00,
2013-10-11 06:01:00,56.3,50.2,29.80,ESE,121,8.0,9.0,80,0.00,,,0.00,Wunderground v.1.13,2013-10-11 11:01:00,
2013-10-11 06:03:00,56.2,50.1,29.80,East,101,8.0,9.0,80,0.00,,,0.00,Wunderground v.1.13,2013-10-11 11:03:00,
2013-10-11 06:04:00,56.2,50.4,29.80,ESE,102,8.0,9.0,81,0.00,,,0.00,Wunderground v.1.13,2013-10-11 11:04:00,
2013-10-11 06:08:00,56.2,50.1,29.80,East,101,9.0,9.0,80,0.00,,,0.00,Wunderground v.1.13,2013-10-11 11:08:00,
2013-10-11 06:09:00,56.2,50.1,29.80,SE,132,9.0,9.0,80,0.00,,,0.00,Wunderground v.1.13,2013-10-11 11:09:00,
2013-10-11 06:10:00,56.2,50.1,29.80,ESE,115,9.0,10.0,80,0.00,,,0.00,Wunderground v.1.13,2013-10-11 11:10:00,
2013-10-11 06:11:00,56.2,50.1,29.79,ESE,111,9.0,10.0,80,0.00,,,0.00,Wunderground v.1.13,2013-10-11 11:11:00,
2013-10-11 06:12:00,56.2,50.4,29.79,ESE,107,9.0,10.0,81,0.00,,,0.00,Wunderground v.1.13,2013-10-11 11:12:00,
2013-10-11 06:13:00,56.2,50.4,29.79,ESE,111,8.0,10.0,81,0.00,,,0.00,Wunderground v.1.13,2013-10-11 11:13:00,
2013-10-11 06:15:00,56.2,50.1,29.79,ESE,105,9.0,11.0,80,0.00,,,0.00,Wunderground v.1.13,2013-10-11 11:15:00,
2013-10-11 06:16:00,56.2,50.1,29.79,ESE,113,8.0,11.0,80,0.00,,,0.00,Wunderground v.1.13,2013-10-11 11:16:00,
2013-10-11 06:18:00,56.2,50.4,29.79,ESE,122,8.0,11.0,81,0.00,,,0.00,Wunderground v.1.13,2013-10-11 11:18:00,
2013-10-11 06:19:00,56.2,50.4,29.79,ESE,109,8.0,11.0,81,0.00,,,0.00,Wunderground v.1.13,2013-10-11 11:19:00,
2013-10-11 06:20:00,56.2,50.4,29.79,ESE,119,8.0,8.0,81,0.00,,,0.00,Wunderground v.1.13,2013-10-11 11:20:00,
2013-10-11 06:21:00,56.2,50.4,29.79,East,99,8.0,10.0,81,0.00,,,0.00,Wunderground v.1.13,2013-10-11 11:21:00,
2013-10-11 06:22:00,56.1,50.3,29.79,ESE,117,8.0,10.0,81,0.00,,,0.00,Wunderground v.1.13,2013-10-11 11:22:00,
2013-10-11 06:25:00,56.1,50.3,29.79,ESE,119,8.0,11.0,81,0.00,,,0.00,Wunderground v.1.13,2013-10-11 11:25:00,
2013-10-11 06:27:00,56.1,50.3,29.79,East,101,8.0,11.0,81,0.00,,,0.00,Wunderground v.1.13,2013-10-11 11:27:00,
2013-10-11 06:28:00,56.0,50.3,29.79,East,96,8.0,11.0,81,0.00,,,0.00,Wunderground v.1.13,2013-10-11 11:28:00,
2013-10-11 06:29:00,56.0,50.3,29.79,East,101,8.0,12.0,81,0.00,,,0.00,Wunderground v.1.13,2013-10-11 11:29:00,
2013-10-11 06:30:00,56.0,50.3,29.79,East,92,8.0,8.0,81,0.00,,,0.00,Wunderground v.1.13,2013-10-11 11:30:00,
2013-10-11 06:34:00,56.0,50.3,29.79,ESE,123,8.0,10.0,81,0.00,,,0.00,Wunderground v.1.13,2013-10-11 11:34:00,
2013-10-11 06:35:00,56.0,50.3,29.79,ESE,109,8.0,9.0,81,0.00,,,0.00,Wunderground v.1.13,2013-10-11 11:35:00,
2013-10-11 06:36:00,55.9,50.2,29.79,East,91,8.0,9.0,81,0.00,,,0.00,Wunderground v.1.13,2013-10-11 11:36:00,
2013-10-11 06:37:00,55.9,50.2,29.79,East,91,8.0,9.0,81,0.00,,,0.00,Wunderground v.1.13,2013-10-11 11:37:00,
2013-10-11 06:38:00,55.9,50.2,29.79,ESE,108,8.0,10.0,81,0.00,,,0.00,Wunderground v.1.13,2013-10-11 11:38:00,
2013-10-11 06:42:00,55.9,50.2,29.79,ESE,106,8.0,8.0,81,0.00,,,0.00,Wunderground v.1.13,2013-10-11 11:42:00,
2013-10-11 06:43:00,55.9,50.2,29.79,ESE,113,8.0,9.0,81,0.00,,,0.00,Wunderground v.1.13,2013-10-11 11:43:00,
2013-10-11 06:44:00,55.8,50.1,29.79,ESE,102,8.0,9.0,81,0.00,,,0.00,Wunderground v.1.13,2013-10-11 11:44:00,
2013-10-11 06:48:00,55.8,50.1,29.79,ESE,119,8.0,12.0,81,0.00,,,0.00,Wunderground v.1.13,2013-10-11 11:48:00,
2013-10-11 06:49:00,55.8,50.1,29.78,ESE,105,8.0,12.0,81,0.00,,,0.00,Wunderground v.1.13,2013-10-11 11:49:00,
2013-10-11 06:50:00,55.8,50.1,29.78,ESE,123,9.0,10.0,81,0.00,,,0.00,Wunderground v.1.13,2013-10-11 11:50:00,
2013-10-11 06:52:00,55.8,50.1,29.78,East,96,9.0,11.0,81,0.00,,,0.00,Wunderground v.1.13,2013-10-11 11:52:00,
2013-10-11 06:53:00,55.8,50.1,29.78,ESE,118,9.0,11.0,81,0.00,,,0.00,Wunderground v.1.13,2013-10-11 11:53:00,
2013-10-11 06:54:00,55.8,50.1,29.78,ESE,113,9.0,11.0,81,0.00,,,0.00,Wunderground v.1.13,2013-10-11 11:54:00,
2013-10-11 06:55:00,55.8,50.4,29.78,ESE,107,9.0,13.0,82,0.00,,,0.00,Wunderground v.1.13,2013-10-11 11:55:00,
2013-10-11 06:56:00,55.8,50.1,29.78,ESE,113,10.0,13.0,81,0.00,,,0.00,Wunderground v.1.13,2013-10-11 11:56:00,
2013-10-11 06:57:00,55.8,50.1,29.78,East,96,10.0,13.0,81,0.00,,,0.00,Wunderground v.1.13,2013-10-11 11:57:00,
2013-10-11 06:59:00,55.8,50.1,29.78,East,100,10.0,13.0,81,0.00,,,0.00,Wunderground v.1.13,2013-10-11 11:59:00,
2013-10-11 07:01:00,55.7,50.0,29.78,ESE,107,10.0,14.0,81,0.00,,,0.00,Wunderground v.1.13,2013-10-11 12:01:00,
2013-10-11 07:02:00,55.7,50.3,29.78,ESE,114,10.0,14.0,82,0.00,,,0.00,Wunderground v.1.13,2013-10-11 12:02:00,
2013-10-11 07:03:00,55.7,50.3,29.78,ESE,111,10.0,14.0,82,0.00,,,0.00,Wunderground v.1.13,2013-10-11 12:03:00,
2013-10-11 07:06:00,55.7,50.3,29.78,ESE,108,9.0,10.0,82,0.00,,,0.00,Wunderground v.1.13,2013-10-11 12:06:00,
2013-10-11 07:07:00,55.7,50.3,29.78,ESE,109,9.0,12.0,82,0.00,,,0.00,Wunderground v.1.13,2013-10-11 12:07:00,
2013-10-11 07:11:00,55.7,50.3,29.78,ESE,110,9.0,13.0,82,0.00,,,0.00,Wunderground v.1.13,2013-10-11 12:11:00,
2013-10-11 07:12:00,55.7,50.3,29.78,East,95,9.0,13.0,82,0.00,,,0.00,Wunderground v.1.13,2013-10-11 12:12:00,
2013-10-11 07:13:00,55.6,50.2,29.78,ESE,118,9.0,13.0,82,0.00,,,0.00,Wunderground v.1.13,2013-10-11 12:13:00,
2013-10-11 07:14:00,55.6,50.2,29.78,ESE,103,9.0,13.0,82,0.00,,,0.00,Wunderground v.1.13,2013-10-11 12:14:00,
2013-10-11 07:16:00,55.6,50.2,29.78,ESE,115,9.0,12.0,82,0.00,,,0.00,Wunderground v.1.13,2013-10-11 12:16:00,
2013-10-11 07:17:00,55.6,50.2,29.78,ESE,111,9.0,12.0,82,0.00,,,0.00,Wunderground v.1.13,2013-10-11 12:17:00,
2013-10-11 07:18:00,55.5,50.1,29.78,ESE,102,9.0,15.0,82,0.00,,,0.00,Wunderground v.1.13,2013-10-11 12:18:00,
2013-10-11 07:19:00,55.5,50.1,29.77,ESE,109,10.0,15.0,82,0.00,,,0.00,Wunderground v.1.13,2013-10-11 12:19:00,
2013-10-11 07:22:00,55.5,50.1,29.77,East,94,9.0,13.0,82,0.00,,,0.00,Wunderground v.1.13,2013-10-11 12:22:00,
2013-10-11 07:23:00,55.5,50.1,29.77,East,92,10.0,13.0,82,0.00,,,0.00,Wunderground v.1.13,2013-10-11 12:23:00,
2013-10-11 07:24:00,55.5,50.1,29.77,ESE,104,10.0,13.0,82,0.00,,,0.00,Wunderground v.1.13,2013-10-11 12:24:00,
2013-10-11 07:25:00,55.5,50.1,29.77,ESE,113,10.0,11.0,82,0.00,,,0.00,Wunderground v.1.13,2013-10-11 12:25:00,
2013-10-11 07:27:00,55.5,50.1,29.77,ESE,123,10.0,13.0,82,0.00,,,0.00,Wunderground v.1.13,2013-10-11 12:27:00,
2013-10-11 07:28:00,55.5,50.1,29.77,ESE,102,10.0,13.0,82,0.00,,,0.00,Wunderground v.1.13,2013-10-11 12:28:00,
2013-10-11 07:31:00,55.5,50.1,29.77,East,86,11.0,11.0,82,0.00,,,0.00,Wunderground v.1.13,2013-10-11 12:31:00,
2013-10-11 07:32:00,55.5,50.1,29.77,ESE,108,11.0,11.0,82,0.00,,,0.00,Wunderground v.1.13,2013-10-11 12:32:00,
2013-10-11 07:35:00,55.5,50.1,29.77,East,100,10.0,12.0,82,0.00,,,0.00,Wunderground v.1.13,2013-10-11 12:35:00,
2013-10-11 07:37:00,55.5,50.4,29.77,ESE,113,10.0,12.0,83,0.00,,,0.00,Wunderground v.1.13,2013-10-11 12:37:00,
2013-10-11 07:38:00,55.5,50.4,29.77,East,101,10.0,12.0,83,0.00,,,0.00,Wunderground v.1.13,2013-10-11 12:38:00,
2013-10-11 07:39:00,55.5,50.4,29.77,ESE,111,10.0,12.0,83,0.00,,,0.00,Wunderground v.1.13,2013-10-11 12:39:00,
2013-10-11 07:43:00,55.5,50.4,29.77,ESE,105,10.0,12.0,83,0.00,,,0.00,Wunderground v.1.13,2013-10-11 12:43:00,
2013-10-11 07:44:00,55.5,50.1,29.77,ESE,114,10.0,12.0,82,0.00,,,0.00,Wunderground v.1.13,2013-10-11 12:44:00,
2013-10-11 07:45:00,55.5,50.4,29.77,ESE,106,10.0,10.0,83,0.00,,,0.00,Wunderground v.1.13,2013-10-11 12:45:00,
2013-10-11 07:47:00,55.6,50.5,29.77,ESE,116,10.0,11.0,83,0.00,,,0.00,Wunderground v.1.13,2013-10-11 12:47:00,
2013-10-11 07:50:00,55.6,50.5,29.77,ESE,121,10.0,14.0,83,0.00,,,0.00,Wunderground v.1.13,2013-10-11 12:50:00,
2013-10-11 07:51:00,55.6,50.5,29.77,East,96,10.0,14.0,83,0.00,,,0.00,Wunderground v.1.13,2013-10-11 12:51:00,
2013-10-11 07:52:00,55.6,50.5,29.77,ESE,121,10.0,14.0,83,0.00,,,0.00,Wunderground v.1.13,2013-10-11 12:52:00,
2013-10-11 07:53:00,55.6,50.2,29.76,East,99,10.0,14.0,82,0.00,,,0.00,Wunderground v.1.13,2013-10-11 12:53:00,
2013-10-11 07:56:00,55.7,50.6,29.77,ESE,102,10.0,11.0,83,0.00,,,0.00,Wunderground v.1.13,2013-10-11 12:56:00,
2013-10-11 07:58:00,55.7,50.3,29.77,ESE,115,10.0,11.0,82,0.00,,,0.00,Wunderground v.1.13,2013-10-11 12:58:00,
2013-10-11 07:59:00,55.8,50.4,29.77,ESE,107,10.0,11.0,82,0.00,,,0.00,Wunderground v.1.13,2013-10-11 12:59:00,
2013-10-11 08:00:00,55.8,50.4,29.77,ESE,115,10.0,10.0,82,0.00,,,0.00,Wunderground v.1.13,2013-10-11 13:00:00,
2013-10-11 08:02:00,55.9,50.5,29.77,ESE,115,10.0,10.0,82,0.00,,,0.00,Wunderground v.1.13,2013-10-11 13:02:00,
2013-10-11 08:06:00,55.9,50.5,29.77,ESE,107,11.0,11.0,82,0.00,,,0.00,Wunderground v.1.13,2013-10-11 13:06:00,
2013-10-11 08:07:00,55.9,50.5,29.77,ESE,114,11.0,12.0,82,0.00,,,0.00,Wunderground v.1.13,2013-10-11 13:07:00,
2013-10-11 08:11:00,56.0,50.6,29.77,East,90,11.0,12.0,82,0.00,,,0.00,Wunderground v.1.13,2013-10-11 13:11:00,
2013-10-11 08:12:00,56.1,50.7,29.76,SE,139,11.0,12.0,82,0.00,,,0.00,Wunderground v.1.13,2013-10-11 13:12:00,
2013-10-11 08:13:00,56.1,50.7,29.76,ESE,115,11.0,15.0,82,0.00,,,0.00,Wunderground v.1.13,2013-10-11 13:13:00,
2013-10-11 08:14:00,56.2,50.8,29.76,ESE,117,11.0,15.0,82,0.00,,,0.00,Wunderground v.1.13,2013-10-11 13:14:00,
2013-10-11 08:17:00,56.3,50.9,29.77,ESE,123,12.0,14.0,82,0.00,,,0.00,Wunderground v.1.13,2013-10-11 13:17:00,
2013-10-11 08:18:00,56.3,50.5,29.77,ESE,102,12.0,14.0,81,0.00,,,0.00,Wunderground v.1.13,2013-10-11 13:18:00,
2013-10-11 08:19:00,56.4,50.6,29.77,ESE,119,12.0,14.0,81,0.00,,,0.00,Wunderground v.1.13,2013-10-11 13:19:00,
2013-10-11 08:20:00,56.4,50.6,29.77,ESE,113,11.0,11.0,81,0.00,,,0.00,Wunderground v.1.13,2013-10-11 13:20:00,
2013-10-11 08:23:00,56.6,51.2,29.77,ESE,105,11.0,12.0,82,0.00,,,0.00,Wunderground v.1.13,2013-10-11 13:23:00,
2013-10-11 08:25:00,56.6,51.2,29.77,ESE,113,11.0,15.0,82,0.00,,,0.00,Wunderground v.1.13,2013-10-11 13:25:00,
2013-10-11 08:29:00,56.9,51.1,29.77,East,99,10.0,15.0,81,0.00,,,0.00,Wunderground v.1.13,2013-10-11 13:29:00,
2013-10-11 08:30:00,57.0,51.2,29.77,East,94,11.0,11.0,81,0.00,,,0.00,Wunderground v.1.13,2013-10-11 13:30:00,
2013-10-11 08:32:00,57.0,51.2,29.77,ESE,102,10.0,11.0,81,0.00,,,0.00,Wunderground v.1.13,2013-10-11 13:32:00,
2013-10-11 08:34:00,57.1,51.3,29.76,East,82,11.0,11.0,81,0.00,,,0.00,Wunderground v.1.13,2013-10-11 13:34:00,
2013-10-11 08:36:00,57.1,51.0,29.76,East,95,11.0,18.0,80,0.00,,,0.00,Wunderground v.1.13,2013-10-11 13:36:00,
2013-10-11 08:37:00,57.2,51.1,29.76,ESE,121,11.0,18.0,80,0.00,,,0.00,Wunderground v.1.13,2013-10-11 13:37:00,
2013-10-11 08:38:00,57.3,51.2,29.75,ESE,107,11.0,18.0,80,0.00,,,0.00,Wunderground v.1.13,2013-10-11 13:38:00,
2013-10-11 08:40:00,57.5,51.4,29.75,ESE,121,11.0,14.0,80,0.00,,,0.00,Wunderground v.1.13,2013-10-11 13:40:00,
2013-10-11 08:42:00,57.6,51.5,29.75,SSE,159,11.0,14.0,80,0.00,,,0.00,Wunderground v.1.13,2013-10-11 13:42:00,
2013-10-11 08:45:00,57.9,51.4,29.75,ESE,105,11.0,15.0,79,0.00,,,0.00,Wunderground v.1.13,2013-10-11 13:45:00,
2013-10-11 08:46:00,58.0,51.5,29.75,East,99,11.0,15.0,79,0.00,,,0.00,Wunderground v.1.13,2013-10-11 13:46:00,
2013-10-11 08:48:00,58.2,51.7,29.75,ESE,122,11.0,21.0,79,0.00,,,0.00,Wunderground v.1.13,2013-10-11 13:48:00,
2013-10-11 08:49:00,58.2,51.7,29.75,East,101,12.0,21.0,79,0.00,,,0.00,Wunderground v.1.13,2013-10-11 13:49:00,
2013-10-11 08:50:00,58.2,51.4,29.75,East,98,12.0,12.0,78,0.00,,,0.00,Wunderground v.1.13,2013-10-11 13:50:00,
2013-10-11 08:54:00,58.3,51.5,29.75,ESE,111,12.0,20.0,78,0.00,,,0.00,Wunderground v.1.13,2013-10-11 13:54:00,
2013-10-11 08:57:00,58.3,51.5,29.75,SE,124,13.0,14.0,78,0.00,,,0.00,Wunderground v.1.13,2013-10-11 13:57:00,
2013-10-11 08:58:00,58.4,51.9,29.75,ESE,115,13.0,14.0,79,0.00,,,0.00,Wunderground v.1.13,2013-10-11 13:58:00,
2013-10-11 09:00:00,58.5,52.0,29.74,ESE,111,13.0,13.0,79,0.00,,,0.00,Wunderground v.1.13,2013-10-11 14:00:00,
2013-10-11 09:02:00,58.6,52.1,29.74,East,101,13.0,13.0,79,0.00,,,0.00,Wunderground v.1.13,2013-10-11 14:02:00,
2013-10-11 09:04:00,58.7,51.9,29.74,ESE,114,13.0,21.0,78,0.00,,,0.00,Wunderground v.1.13,2013-10-11 14:04:00,
2013-10-11 09:07:00,58.8,52.3,29.75,ESE,103,12.0,14.0,79,0.00,,,0.00,Wunderground v.1.13,2013-10-11 14:07:00,
2013-10-11 09:08:00,58.9,52.1,29.75,ESE,121,12.0,15.0,78,0.00,,,0.00,Wunderground v.1.13,2013-10-11 14:08:00,
2013-10-11 09:13:00,58.9,52.1,29.74,ESE,111,14.0,19.0,78,0.00,,,0.00,Wunderground v.1.13,2013-10-11 14:13:00,
2013-10-11 09:14:00,58.9,52.1,29.74,SE,131,13.0,19.0,78,0.00,,,0.00,Wunderground v.1.13,2013-10-11 14:14:00,
2013-10-11 09:15:00,58.9,52.1,29.74,ESE,109,13.0,16.0,78,0.00,,,0.00,Wunderground v.1.13,2013-10-11 14:15:00,
2013-10-11 09:16:00,58.9,52.1,29.74,ESE,119,13.0,16.0,78,0.00,,,0.00,Wunderground v.1.13,2013-10-11 14:16:00,
2013-10-11 09:19:00,59.0,52.1,29.74,ESE,123,13.0,16.0,78,0.00,,,0.00,Wunderground v.1.13,2013-10-11 14:19:00,
2013-10-11 09:21:00,59.0,52.1,29.74,East,97,13.0,13.0,78,0.00,,,0.00,Wunderground v.1.13,2013-10-11 14:21:00,
2013-10-11 09:22:00,59.1,52.2,29.74,ESE,115,12.0,14.0,78,0.00,,,0.00,Wunderground v.1.13,2013-10-11 14:22:00,
2013-10-11 09:24:00,59.2,52.0,29.74,ESE,108,12.0,15.0,77,0.00,,,0.00,Wunderground v.1.13,2013-10-11 14:24:00,
2013-10-11 09:25:00,59.2,52.0,29.74,ESE,115,13.0,13.0,77,0.00,,,0.00,Wunderground v.1.13,2013-10-11 14:25:00,
2013-10-11 09:26:00,59.3,52.1,29.74,ESE,115,12.0,13.0,77,0.00,,,0.00,Wunderground v.1.13,2013-10-11 14:26:00,
2013-10-11 09:27:00,59.4,52.5,29.74,ESE,111,12.0,14.0,78,0.00,,,0.00,Wunderground v.1.13,2013-10-11 14:27:00,
2013-10-11 09:29:00,59.4,52.2,29.74,ESE,108,12.0,15.0,77,0.00,,,0.00,Wunderground v.1.13,2013-10-11 14:29:00,
2013-10-11 09:30:00,59.4,52.2,29.74,ESE,117,12.0,12.0,77,0.00,,,0.00,Wunderground v.1.13,2013-10-11 14:30:00,
2013-10-11 09:31:00,59.4,52.2,29.74,ESE,113,12.0,12.0,77,0.00,,,0.00,Wunderground v.1.13,2013-10-11 14:31:00,
2013-10-11 09:36:00,60.1,52.9,29.74,East,95,12.0,12.0,77,0.00,,,0.00,Wunderground v.1.13,2013-10-11 14:36:00,
2013-10-11 09:37:00,60.1,52.5,29.74,East,92,12.0,12.0,76,0.00,,,0.00,Wunderground v.1.13,2013-10-11 14:37:00,
2013-10-11 09:38:00,60.3,52.7,29.74,ESE,106,12.0,12.0,76,0.00,,,0.00,Wunderground v.1.13,2013-10-11 14:38:00,
2013-10-11 09:39:00,60.4,52.8,29.74,ESE,118,12.0,12.0,76,0.00,,,0.00,Wunderground v.1.13,2013-10-11 14:39:00,
2013-10-11 09:40:00,60.6,53.0,29.74,ESE,119,12.0,12.0,76,0.00,,,0.00,Wunderground v.1.13,2013-10-11 14:40:00,
2013-10-11 09:43:00,60.8,52.8,29.73,SE,126,12.0,20.0,75,0.00,,,0.00,Wunderground v.1.13,2013-10-11 14:43:00,
2013-10-11 09:45:00,60.9,52.9,29.73,ESE,123,14.0,16.0,75,0.00,,,0.00,Wunderground v.1.13,2013-10-11 14:45:00,
2013-10-11 09:47:00,61.2,53.2,29.73,ESE,109,14.0,16.0,75,0.00,,,0.00,Wunderground v.1.13,2013-10-11 14:47:00,
2013-10-11 09:48:00,61.3,52.9,29.73,ESE,111,14.0,16.0,74,0.00,,,0.00,Wunderground v.1.13,2013-10-11 14:48:00,
2013-10-11 09:50:00,61.5,53.1,29.73,ESE,115,14.0,14.0,74,0.00,,,0.00,Wunderground v.1.13,2013-10-11 14:50:00,
2013-10-11 09:51:00,61.6,53.2,29.73,ESE,109,14.0,19.0,74,0.00,,,0.00,Wunderground v.1.13,2013-10-11 14:51:00,
2013-10-11 09:53:00,61.8,53.1,29.73,SE,125,14.0,19.0,73,0.00,,,0.00,Wunderground v.1.13,2013-10-11 14:53:00,
2013-10-11 09:54:00,61.9,53.5,29.73,ESE,110,14.0,19.0,74,0.00,,,0.00,Wunderground v.1.13,2013-10-11 14:54:00,
2013-10-11 09:55:00,62.1,53.3,29.73,ESE,107,13.0,13.0,73,0.00,,,0.00,Wunderground v.1.13,2013-10-11 14:55:00,
2013-10-11 09:57:00,62.4,53.3,29.73,ESE,103,13.0,18.0,72,0.00,,,0.00,Wunderground v.1.13,2013-10-11 14:57:00,
2013-10-11 09:58:00,62.4,53.3,29.73,ESE,110,14.0,18.0,72,0.00,,,0.00,Wunderground v.1.13,2013-10-11 14:58:00,
2013-10-11 10:00:00,62.6,53.4,29.73,ESE,105,13.0,13.0,72,0.00,,,0.00,Wunderground v.1.13,2013-10-11 15:00:00,
2013-10-11 10:01:00,62.7,53.2,29.73,SE,136,13.0,15.0,71,0.00,,,0.00,Wunderground v.1.13,2013-10-11 15:01:00,
2013-10-11 10:03:00,62.7,52.8,29.72,ESE,109,14.0,21.0,70,0.00,,,0.00,Wunderground v.1.13,2013-10-11 15:03:00,
2013-10-11 10:04:00,62.7,53.2,29.72,SE,128,14.0,21.0,71,0.00,,,0.00,Wunderground v.1.13,2013-10-11 15:04:00,
2013-10-11 10:05:00,62.8,53.6,29.72,ESE,118,14.0,14.0,72,0.00,,,0.00,Wunderground v.1.13,2013-10-11 15:05:00,
2013-10-11 10:06:00,62.9,53.7,29.72,East,95,14.0,14.0,72,0.00,,,0.00,Wunderground v.1.13,2013-10-11 15:06:00,
2013-10-11 10:08:00,62.9,53.4,29.73,ESE,117,14.0,18.0,71,0.00,,,0.00,Wunderground v.1.13,2013-10-11 15:08:00,
2013-10-11 10:10:00,63.0,53.4,29.72,ESE,111,15.0,15.0,71,0.00,,,0.00,Wunderground v.1.13,2013-10-11 15:10:00,
2013-10-11 10:12:00,63.0,53.4,29.72,ESE,114,15.0,22.0,71,0.00,,,0.00,Wunderground v.1.13,2013-10-11 15:12:00,
2013-10-11 10:13:00,63.1,53.2,29.72,SE,130,15.0,22.0,70,0.00,,,0.00,Wunderground v.1.13,2013-10-11 15:13:00,
2013-10-11 10:15:00,63.3,53.3,29.72,SE,127,16.0,21.0,70,0.00,,,0.00,Wunderground v.1.13,2013-10-11 15:15:00,
2013-10-11 10:16:00,63.4,53.4,29.72,ESE,113,16.0,21.0,70,0.00,,,0.00,Wunderground v.1.13,2013-10-11 15:16:00,
2013-10-11 10:20:00,63.7,53.7,29.72,SE,128,16.0,16.0,70,0.00,,,0.00,Wunderground v.1.13,2013-10-11 15:20:00,
2013-10-11 10:22:00,63.8,53.8,29.71,SE,136,16.0,19.0,70,0.00,,,0.00,Wunderground v.1.13,2013-10-11 15:22:00,
2013-10-11 10:23:00,63.9,53.5,29.71,ESE,112,15.0,19.0,69,0.00,,,0.00,Wunderground v.1.13,2013-10-11 15:23:00,
2013-10-11 10:24:00,64.0,53.6,29.72,SE,132,15.0,19.0,69,0.00,,,0.00,Wunderground v.1.13,2013-10-11 15:24:00,
2013-10-11 10:28:00,64.1,53.7,29.71,East,91,15.0,25.0,69,0.00,,,0.00,Wunderground v.1.13,2013-10-11 15:28:00,
2013-10-11 10:31:00,64.3,53.5,29.71,ESE,113,15.0,20.0,68,0.00,,,0.00,Wunderground v.1.13,2013-10-11 15:31:00,
2013-10-11 10:35:00,64.7,53.9,29.71,ESE,111,15.0,21.0,68,0.00,,,0.00,Wunderground v.1.13,2013-10-11 15:35:00,
2013-10-11 10:36:00,64.7,53.9,29.70,SE,130,15.0,27.0,68,0.00,,,0.00,Wunderground v.1.13,2013-10-11 15:36:00,
2013-10-11 10:38:00,64.7,53.9,29.71,ESE,117,16.0,27.0,68,0.00,,,0.00,Wunderground v.1.13,2013-10-11 15:38:00,
2013-10-11 10:40:00,65.0,54.2,29.71,ESE,113,17.0,27.0,68,0.00,,,0.00,Wunderground v.1.13,2013-10-11 15:40:00,
2013-10-11 10:41:00,65.1,53.9,29.71,ESE,123,17.0,17.0,67,0.00,,,0.00,Wunderground v.1.13,2013-10-11 15:41:00,
2013-10-11 10:42:00,65.1,53.9,29.71,SE,131,17.0,18.0,67,0.00,,,0.00,Wunderground v.1.13,2013-10-11 15:42:00,
2013-10-11 10:43:00,65.0,54.2,29.71,SE,125,16.0,22.0,68,0.00,,,0.00,Wunderground v.1.13,2013-10-11 15:43:00,
2013-10-11 10:44:00,64.9,53.7,29.70,SE,128,16.0,22.0,67,0.00,,,0.00,Wunderground v.1.13,2013-10-11 15:44:00,
2013-10-11 10:47:00,65.0,53.8,29.71,ESE,119,15.0,18.0,67,0.00,,,0.00,Wunderground v.1.13,2013-10-11 15:47:00,
2013-10-11 10:49:00,64.9,54.1,29.71,ESE,123,15.0,18.0,68,0.00,,,0.00,Wunderground v.1.13,2013-10-11 15:49:00,
2013-10-11 10:50:00,64.9,54.1,29.71,ESE,118,15.0,18.0,68,0.00,,,0.00,Wunderground v.1.13,2013-10-11 15:50:00,
2013-10-11 10:51:00,64.9,54.1,29.71,SE,128,15.0,15.0,68,0.00,,,0.00,Wunderground v.1.13,2013-10-11 15:51:00,
2013-10-11 10:55:00,65.2,54.4,29.70,ESE,111,14.0,18.0,68,0.00,,,0.00,Wunderground v.1.13,2013-10-11 15:55:00,
2013-10-11 10:56:00,65.3,54.5,29.70,SE,129,15.0,15.0,68,0.00,,,0.00,Wunderground v.1.13,2013-10-11 15:56:00,
2013-10-11 10:57:00,65.3,54.5,29.70,SE,142,14.0,15.0,68,0.00,,,0.00,Wunderground v.1.13,2013-10-11 15:57:00,
2013-10-11 10:59:00,65.2,54.0,29.70,SE,142,14.0,16.0,67,0.00,,,0.00,Wunderground v.1.13,2013-10-11 15:59:00,
2013-10-11 11:00:00,65.2,54.0,29.70,ESE,108,14.0,19.0,67,0.00,,,0.00,Wunderground v.1.13,2013-10-11 16:00:00,
2013-10-11 11:01:00,65.1,53.9,29.70,SE,134,15.0,19.0,67,0.00,,,0.00,Wunderground v.1.13,2013-10-11 16:01:00,
2013-10-11 11:03:00,65.0,54.2,29.70,ESE,110,15.0,19.0,68,0.00,,,0.00,Wunderground v.1.13,2013-10-11 16:03:00,
2013-10-11 11:06:00,65.1,53.9,29.69,ESE,112,16.0,19.0,67,0.00,,,0.00,Wunderground v.1.13,2013-10-11 16:06:00,
2013-10-11 11:08:00,65.3,54.5,29.69,SE,133,17.0,19.0,68,0.00,,,0.00,Wunderground v.1.13,2013-10-11 16:08:00,
2013-10-11 11:11:00,65.6,53.9,29.68,ESE,118,17.0,17.0,66,0.00,,,0.00,Wunderground v.1.13,2013-10-11 16:11:00,
2013-10-11 11:12:00,65.7,54.4,29.68,ESE,111,17.0,19.0,67,0.00,,,0.00,Wunderground v.1.13,2013-10-11 16:12:00,
2013-10-11 11:17:00,66.4,54.7,29.68,ESE,121,17.0,18.0,66,0.00,,,0.00,Wunderground v.1.13,2013-10-11 16:17:00,
2013-10-11 11:18:00,66.5,54.4,29.68,ESE,113,17.0,18.0,65,0.00,,,0.00,Wunderground v.1.13,2013-10-11 16:18:00,
2013-10-11 11:19:00,66.6,54.5,29.67,East,100,17.0,18.0,65,0.00,,,0.00,Wunderground v.1.13,2013-10-11 16:19:00,
2013-10-11 11:21:00,66.8,54.7,29.67,SE,128,17.0,17.0,65,0.00,,,0.00,Wunderground v.1.13,2013-10-11 16:21:00,
2013-10-11 11:23:00,66.9,54.7,29.67,East,100,17.0,21.0,65,0.00,,,0.00,Wunderground v.1.13,2013-10-11 16:23:00,
2013-10-11 11:25:00,67.1,54.9,29.67,ESE,115,18.0,18.0,65,0.00,,,0.00,Wunderground v.1.13,2013-10-11 16:25:00,
2013-10-11 11:26:00,67.2,55.0,29.66,SE,132,17.0,18.0,65,0.00,,,0.00,Wunderground v.1.13,2013-10-11 16:26:00,
2013-10-11 11:28:00,67.3,54.3,29.66,SE,128,17.0,22.0,63,0.00,,,0.00,Wunderground v.1.13,2013-10-11 16:28:00,
2013-10-11 11:29:00,67.4,54.8,29.66,SSE,153,18.0,22.0,64,0.00,,,0.00,Wunderground v.1.13,2013-10-11 16:29:00,
2013-10-11 11:32:00,67.6,55.0,29.67,East,86,17.0,17.0,64,0.00,,,0.00,Wunderground v.1.13,2013-10-11 16:32:00,
2013-10-11 11:34:00,67.8,55.2,29.66,ESE,114,17.0,23.0,64,0.00,,,0.00,Wunderground v.1.13,2013-10-11 16:34:00,
2013-10-11 11:35:00,67.9,55.7,29.66,ESE,121,16.0,20.0,65,0.00,,,0.00,Wunderground v.1.13,2013-10-11 16:35:00,
2013-10-11 11:39:00,68.3,55.2,29.66,ESE,117,15.0,21.0,63,0.00,,,0.00,Wunderground v.1.13,2013-10-11 16:39:00,
2013-10-11 11:40:00,68.3,55.2,29.66,ESE,117,16.0,16.0,63,0.00,,,0.00,Wunderground v.1.13,2013-10-11 16:40:00,
2013-10-11 11:41:00,68.3,55.2,29.66,ESE,121,17.0,17.0,63,0.00,,,0.00,Wunderground v.1.13,2013-10-11 16:41:00,
2013-10-11 11:42:00,68.2,55.6,29.66,ESE,119,17.0,17.0,64,0.00,,,0.00,Wunderground v.1.13,2013-10-11 16:42:00,
2013-10-11 11:47:00,68.6,55.1,29.66,ESE,106,19.0,28.0,62,0.00,,,0.00,Wunderground v.1.13,2013-10-11 16:47:00,
2013-10-11 11:48:00,68.6,55.5,29.65,ESE,117,20.0,28.0,63,0.00,,,0.00,Wunderground v.1.13,2013-10-11 16:48:00,
2013-10-11 11:49:00,68.7,55.2,29.65,East,89,20.0,28.0,62,0.00,,,0.00,Wunderground v.1.13,2013-10-11 16:49:00,
2013-10-11 11:50:00,68.7,55.2,29.66,ESE,119,20.0,20.0,62,0.00,,,0.00,Wunderground v.1.13,2013-10-11 16:50:00,
2013-10-11 11:52:00,68.8,55.2,29.65,ESE,115,20.0,20.0,62,0.00,,,0.00,Wunderground v.1.13,2013-10-11 16:52:00,
2013-10-11 11:54:00,69.1,56.0,29.66,ESE,119,19.0,20.0,63,0.00,,,0.00,Wunderground v.1.13,2013-10-11 16:54:00,
2013-10-11 11:55:00,69.2,55.6,29.66,ESE,109,19.0,19.0,62,0.00,,,0.00,Wunderground v.1.13,2013-10-11 16:55:00,
2013-10-11 11:56:00,69.2,55.6,29.65,ESE,115,19.0,19.0,62,0.00,,,0.00,Wunderground v.1.13,2013-10-11 16:56:00,
2013-10-11 11:57:00,69.2,55.6,29.66,SE,144,18.0,19.0,62,0.00,,,0.00,Wunderground v.1.13,2013-10-11 16:57:00,
2013-10-11 12:02:00,69.2,55.2,29.66,SE,128,17.0,19.0,61,0.00,,,0.00,Wunderground v.1.13,2013-10-11 17:02:00,
2013-10-11 12:03:00,69.2,55.6,29.66,ENE,71,17.0,19.0,62,0.00,,,0.00,Wunderground v.1.13,2013-10-11 17:03:00,
2013-10-11 12:04:00,69.1,55.5,29.66,SE,125,17.0,24.0,62,0.00,,,0.00,Wunderground v.1.13,2013-10-11 17:04:00,
2013-10-11 12:07:00,69.1,55.1,29.65,ESE,106,19.0,26.0,61,0.00,,,0.00,Wunderground v.1.13,2013-10-11 17:07:00,
2013-10-11 12:08:00,69.1,55.1,29.65,SE,130,20.0,26.0,61,0.00,,,0.00,Wunderground v.1.13,2013-10-11 17:08:00,
2013-10-11 12:10:00,69.1,55.5,29.65,SE,136,21.0,21.0,62,0.00,,,0.00,Wunderground v.1.13,2013-10-11 17:10:00,
2013-10-11 12:11:00,69.0,55.0,29.65,ESE,118,21.0,21.0,61,0.00,,,0.00,Wunderground v.1.13,2013-10-11 17:11:00,
2013-10-11 12:14:00,69.0,55.0,29.64,ESE,118,22.0,23.0,61,0.00,,,0.00,Wunderground v.1.13,2013-10-11 17:14:00,
2013-10-11 12:15:00,69.0,55.4,29.64,ESE,117,22.0,22.0,62,0.00,,,0.00,Wunderground v.1.13,2013-10-11 17:15:00,
2013-10-11 12:17:00,69.2,55.2,29.64,ESE,115,22.0,22.0,61,0.00,,,0.00,Wunderground v.1.13,2013-10-11 17:17:00,
2013-10-11 12:19:00,69.3,55.3,29.64,ESE,102,22.0,22.0,61,0.00,,,0.00,Wunderground v.1.13,2013-10-11 17:19:00,
2013-10-11 12:22:00,69.4,55.4,29.63,SE,144,23.0,23.0,61,0.00,,,0.00,Wunderground v.1.13,2013-10-11 17:22:00,
2013-10-11 12:23:00,69.4,55.4,29.63,ESE,123,23.0,23.0,61,0.00,,,0.00,Wunderground v.1.13,2013-10-11 17:23:00,
2013-10-11 12:28:00,69.3,55.3,29.63,ESE,121,22.0,39.0,61,0.00,,,0.00,Wunderground v.1.13,2013-10-11 17:28:00,
2013-10-11 12:29:00,69.2,55.2,29.63,SE,142,23.0,39.0,61,0.00,,,0.00,Wunderground v.1.13,2013-10-11 17:29:00,
2013-10-11 12:30:00,69.1,55.1,29.63,ESE,107,23.0,30.0,61,0.00,,,0.00,Wunderground v.1.13,2013-10-11 17:30:00,
2013-10-11 12:32:00,69.1,55.1,29.63,ESE,115,24.0,30.0,61,0.00,,,0.00,Wunderground v.1.13,2013-10-11 17:32:00,
2013-10-11 12:33:00,69.2,55.2,29.63,ESE,113,24.0,30.0,61,0.00,,,0.00,Wunderground v.1.13,2013-10-11 17:33:00,
2013-10-11 12:38:00,69.7,55.6,29.63,ESE,115,23.0,24.0,61,0.00,,,0.00,Wunderground v.1.13,2013-10-11 17:38:00,
2013-10-11 12:39:00,69.8,55.7,29.63,ESE,119,21.0,26.0,61,0.00,,,0.00,Wunderground v.1.13,2013-10-11 17:39:00,
2013-10-11 12:41:00,69.9,55.8,29.63,ESE,103,20.0,23.0,61,0.00,,,0.00,Wunderground v.1.13,2013-10-11 17:41:00,
2013-10-11 12:42:00,70.0,55.5,29.62,SSE,147,19.0,23.0,60,0.00,,,0.00,Wunderground v.1.13,2013-10-11 17:42:00,
2013-10-11 12:44:00,70.2,55.7,29.62,ESE,122,19.0,30.0,60,0.00,,,0.00,Wunderground v.1.13,2013-10-11 17:44:00,
2013-10-11 12:45:00,70.1,55.1,29.62,SE,125,19.0,19.0,59,0.00,,,0.00,Wunderground v.1.13,2013-10-11 17:45:00,
2013-10-11 12:47:00,70.1,55.1,29.62,ESE,109,21.0,27.0,59,0.00,,,0.00,Wunderground v.1.13,2013-10-11 17:47:00,
2013-10-11 12:49:00,70.2,55.2,29.61,SE,126,22.0,40.0,59,0.00,,,0.00,Wunderground v.1.13,2013-10-11 17:49:00,
2013-10-11 12:50:00,70.2,54.7,29.61,SE,130,23.0,23.0,58,0.00,,,0.00,Wunderground v.1.13,2013-10-11 17:50:00,
2013-10-11 12:51:00,70.2,55.2,29.62,ESE,108,24.0,24.0,59,0.00,,,0.00,Wunderground v.1.13,2013-10-11 17:51:00,
2013-10-11 12:53:00,70.4,55.4,29.61,ESE,119,24.0,24.0,59,0.00,,,0.00,Wunderground v.1.13,2013-10-11 17:53:00,
2013-10-11 12:54:00,70.4,55.8,29.61,ESE,118,24.0,24.0,60,0.00,,,0.00,Wunderground v.1.13,2013-10-11 17:54:00,
2013-10-11 12:55:00,70.6,56.0,29.61,ESE,120,23.0,23.0,60,0.00,,,0.00,Wunderground v.1.13,2013-10-11 17:55:00,
2013-10-11 12:59:00,71.0,55.5,29.61,SE,132,20.0,23.0,58,0.00,,,0.00,Wunderground v.1.13,2013-10-11 17:59:00,
2013-10-11 13:00:00,71.0,55.0,29.60,ESE,117,20.0,23.0,57,0.00,,,0.00,Wunderground v.1.13,2013-10-11 18:00:00,
2013-10-11 13:01:00,71.0,55.0,29.61,ESE,120,19.0,23.0,57,0.00,,,0.00,Wunderground v.1.13,2013-10-11 18:01:00,
2013-10-11 13:04:00,70.8,53.3,29.60,SE,128,18.0,23.0,54,0.00,,,0.00,Wunderground v.1.13,2013-10-11 18:04:00,
2013-10-11 13:05:00,70.8,53.8,29.61,SE,135,19.0,19.0,55,0.00,,,0.00,Wunderground v.1.13,2013-10-11 18:05:00,
2013-10-11 13:06:00,70.9,54.4,29.61,SE,134,19.0,20.0,56,0.00,,,0.00,Wunderground v.1.13,2013-10-11 18:06:00,
2013-10-11 13:07:00,70.9,54.4,29.61,SE,129,20.0,23.0,56,0.00,,,0.00,Wunderground v.1.13,2013-10-11 18:07:00,
2013-10-11 13:10:00,70.7,53.7,29.60,ESE,117,21.0,21.0,55,0.00,,,0.00,Wunderground v.1.13,2013-10-11 18:10:00,
2013-10-11 13:11:00,70.7,53.7,29.60,ESE,117,21.0,24.0,55,0.00,,,0.00,Wunderground v.1.13,2013-10-11 18:11:00,
2013-10-11 13:12:00,70.7,53.7,29.60,SE,128,21.0,24.0,55,0.00,,,0.00,Wunderground v.1.13,2013-10-11 18:12:00,
2013-10-11 13:16:00,70.9,53.9,29.59,ESE,116,23.0,25.0,55,0.00,,,0.00,Wunderground v.1.13,2013-10-11 18:16:00,
2013-10-11 13:18:00,70.9,53.9,29.59,SE,125,23.0,28.0,55,0.00,,,0.00,Wunderground v.1.13,2013-10-11 18:18:00,
2013-10-11 13:19:00,70.8,53.8,29.59,ESE,123,23.0,28.0,55,0.00,,,0.00,Wunderground v.1.13,2013-10-11 18:19:00,
2013-10-11 13:21:00,70.7,54.2,29.59,ESE,109,23.0,25.0,56,0.00,,,0.00,Wunderground v.1.13,2013-10-11 18:21:00,
2013-10-11 13:24:00,70.6,54.1,29.59,ESE,121,22.0,25.0,56,0.00,,,0.00,Wunderground v.1.13,2013-10-11 18:24:00,
2013-10-11 13:25:00,70.6,53.6,29.59,ESE,114,22.0,24.0,55,0.00,,,0.00,Wunderground v.1.13,2013-10-11 18:25:00,
2013-10-11 13:26:00,70.6,53.1,29.58,East,94,22.0,24.0,54,0.00,,,0.00,Wunderground v.1.13,2013-10-11 18:26:00,
2013-10-11 13:31:00,70.9,53.4,29.58,ESE,112,22.0,22.0,54,0.00,,,0.00,Wunderground v.1.13,2013-10-11 18:31:00,
2013-10-11 13:33:00,71.0,53.5,29.58,ESE,103,22.0,26.0,54,0.00,,,0.00,Wunderground v.1.13,2013-10-11 18:33:00,
2013-10-11 13:36:00,71.1,53.1,29.57,ESE,105,22.0,32.0,53,0.00,,,0.00,Wunderground v.1.13,2013-10-11 18:36:00,
2013-10-11 13:37:00,71.0,53.5,29.58,ESE,112,22.0,32.0,54,0.00,,,0.00,Wunderground v.1.13,2013-10-11 18:37:00,
2013-10-11 13:38:00,71.0,53.5,29.57,ESE,114,23.0,32.0,54,0.00,,,0.00,Wunderground v.1.13,2013-10-11 18:38:00,
2013-10-11 13:39:00,71.0,53.0,29.58,ESE,122,23.0,32.0,53,0.00,,,0.00,Wunderground v.1.13,2013-10-11 18:39:00,
2013-10-11 13:42:00,71.3,53.3,29.58,ESE,110,22.0,24.0,53,0.00,,,0.00,Wunderground v.1.13,2013-10-11 18:42:00,
2013-10-11 13:43:00,71.4,53.4,29.58,SE,130,23.0,30.0,53,0.00,,,0.00,Wunderground v.1.13,2013-10-11 18:43:00,
2013-10-11 13:45:00,71.4,52.9,29.58,SE,124,23.0,30.0,52,0.00,,,0.00,Wunderground v.1.13,2013-10-11 18:45:00,
2013-10-11 13:48:00,71.3,53.3,29.59,SSE,152,23.0,30.0,53,0.00,,,0.00,Wunderground v.1.13,2013-10-11 18:48:00,
2013-10-11 13:49:00,71.3,53.3,29.59,East,94,22.0,30.0,53,0.00,,,0.00,Wunderground v.1.13,2013-10-11 18:49:00,
2013-10-11 13:50:00,71.2,53.2,29.59,ESE,118,23.0,23.0,53,0.00,,,0.00,Wunderground v.1.13,2013-10-11 18:50:00,
2013-10-11 13:53:00,70.9,52.9,29.59,ESE,103,22.0,23.0,53,0.00,,,0.00,Wunderground v.1.13,2013-10-11 18:53:00,
2013-10-11 13:54:00,70.7,53.2,29.59,ESE,123,22.0,28.0,54,0.00,,,0.00,Wunderground v.1.13,2013-10-11 18:54:00,
2013-10-11 13:56:00,70.6,53.1,29.59,SE,126,22.0,24.0,54,0.00,,,0.00,Wunderground v.1.13,2013-10-11 18:56:00,
2013-10-11 13:57:00,70.6,53.1,29.59,SE,124,21.0,28.0,54,0.00,,,0.00,Wunderground v.1.13,2013-10-11 18:57:00,
2013-10-11 13:59:00,70.5,53.6,29.59,ESE,107,21.0,28.0,55,0.00,,,0.00,Wunderground v.1.13,2013-10-11 18:59:00,
2013-10-11 14:02:00,70.6,53.1,29.60,ESE,118,21.0,24.0,54,0.00,,,0.00,Wunderground v.1.13,2013-10-11 19:02:00,
2013-10-11 14:03:00,70.7,53.2,29.59,ESE,113,21.0,28.0,54,0.00,,,0.00,Wunderground v.1.13,2013-10-11 19:03:00,
2013-10-11 14:04:00,70.7,53.2,29.59,ESE,105,22.0,28.0,54,0.00,,,0.00,Wunderground v.1.13,2013-10-11 19:04:00,
2013-10-11 14:05:00,70.8,53.3,29.59,SSE,157,21.0,25.0,54,0.00,,,0.00,Wunderground v.1.13,2013-10-11 19:05:00,
2013-10-11 14:09:00,70.7,53.7,29.59,SE,128,21.0,27.0,55,0.00,,,0.00,Wunderground v.1.13,2013-10-11 19:09:00,
2013-10-11 14:10:00,70.8,53.3,29.59,SE,127,21.0,21.0,54,0.00,,,0.00,Wunderground v.1.13,2013-10-11 19:10:00,
2013-10-11 14:11:00,70.7,53.2,29.58,ESE,120,20.0,21.0,54,0.00,,,0.00,Wunderground v.1.13,2013-10-11 19:11:00,
2013-10-11 14:12:00,70.6,53.6,29.58,ESE,123,20.0,26.0,55,0.00,,,0.00,Wunderground v.1.13,2013-10-11 19:12:00,
2013-10-11 14:15:00,70.7,53.7,29.58,ESE,119,18.0,19.0,55,0.00,,,0.00,Wunderground v.1.13,2013-10-11 19:15:00,
2013-10-11 14:17:00,70.6,53.1,29.58,SE,129,17.0,24.0,54,0.00,,,0.00,Wunderground v.1.13,2013-10-11 19:17:00,
2013-10-11 14:18:00,70.6,53.1,29.58,ESE,119,18.0,24.0,54,0.00,,,0.00,Wunderground v.1.13,2013-10-11 19:18:00,
2013-10-11 14:19:00,70.6,53.1,29.58,SE,130,18.0,24.0,54,0.00,,,0.00,Wunderground v.1.13,2013-10-11 19:19:00,
2013-10-11 14:20:00,70.7,52.7,29.57,ESE,118,18.0,26.0,53,0.00,,,0.00,Wunderground v.1.13,2013-10-11 19:20:00,
2013-10-11 14:21:00,70.6,53.6,29.57,ESE,110,19.0,26.0,55,0.00,,,0.00,Wunderground v.1.13,2013-10-11 19:21:00,
2013-10-11 14:24:00,70.6,53.1,29.57,SE,127,20.0,26.0,54,0.00,,,0.00,Wunderground v.1.13,2013-10-11 19:24:00,
2013-10-11 14:26:00,70.5,53.1,29.57,ESE,121,20.0,22.0,54,0.00,,,0.00,Wunderground v.1.13,2013-10-11 19:26:00,
2013-10-11 14:27:00,70.5,53.1,29.57,SE,136,20.0,22.0,54,0.00,,,0.00,Wunderground v.1.13,2013-10-11 19:27:00,
2013-10-11 14:28:00,70.5,53.6,29.58,ESE,106,20.0,22.0,55,0.00,,,0.00,Wunderground v.1.13,2013-10-11 19:28:00,
2013-10-11 14:31:00,70.6,53.1,29.58,SE,138,19.0,24.0,54,0.00,,,0.00,Wunderground v.1.13,2013-10-11 19:31:00,
2013-10-11 14:32:00,70.7,53.7,29.57,ESE,119,19.0,24.0,55,0.00,,,0.00,Wunderground v.1.13,2013-10-11 19:32:00,
2013-10-11 14:33:00,70.7,53.2,29.57,ESE,119,19.0,24.0,54,0.00,,,0.00,Wunderground v.1.13,2013-10-11 19:33:00,
2013-10-11 14:34:00,70.6,53.1,29.57,ESE,120,18.0,24.0,54,0.00,,,0.00,Wunderground v.1.13,2013-10-11 19:34:00,
2013-10-11 14:38:00,70.7,53.2,29.57,SE,129,17.0,27.0,54,0.00,,,0.00,Wunderground v.1.13,2013-10-11 19:38:00,
2013-10-11 14:39:00,70.7,53.2,29.57,ESE,114,17.0,27.0,54,0.00,,,0.00,Wunderground v.1.13,2013-10-11 19:39:00,
2013-10-11 14:40:00,70.8,52.8,29.57,SE,128,17.0,25.0,53,0.00,,,0.00,Wunderground v.1.13,2013-10-11 19:40:00,
2013-10-11 14:44:00,70.8,52.8,29.56,ESE,121,18.0,25.0,53,0.00,,,0.00,Wunderground v.1.13,2013-10-11 19:44:00,
2013-10-11 14:47:00,70.7,52.7,29.57,ESE,122,19.0,20.0,53,0.00,,,0.00,Wunderground v.1.13,2013-10-11 19:47:00,
2013-10-11 14:48:00,70.7,52.7,29.57,ESE,119,18.0,25.0,53,0.00,,,0.00,Wunderground v.1.13,2013-10-11 19:48:00,
2013-10-11 14:51:00,70.6,53.1,29.56,ESE,103,20.0,23.0,54,0.00,,,0.00,Wunderground v.1.13,2013-10-11 19:51:00,
2013-10-11 14:52:00,70.6,53.1,29.56,SE,129,20.0,23.0,54,0.00,,,0.00,Wunderground v.1.13,2013-10-11 19:52:00,
2013-10-11 14:54:00,70.6,53.6,29.56,SE,135,20.0,23.0,55,0.00,,,0.00,Wunderground v.1.13,2013-10-11 19:54:00,
2013-10-11 14:55:00,70.6,53.1,29.55,SE,126,20.0,20.0,54,0.00,,,0.00,Wunderground v.1.13,2013-10-11 19:55:00,
2013-10-11 14:56:00,70.6,53.6,29.56,SE,141,21.0,25.0,55,0.00,,,0.00,Wunderground v.1.13,2013-10-11 19:56:00,
2013-10-11 14:59:00,70.4,53.5,29.56,SSW,200,21.0,25.0,55,0.00,,,0.00,Wunderground v.1.13,2013-10-11 19:59:00,
2013-10-11 15:01:00,70.4,53.5,29.56,ESE,123,20.0,22.0,55,0.00,,,0.00,Wunderground v.1.13,2013-10-11 20:01:00,
2013-10-11 15:03:00,70.5,53.1,29.56,SE,132,19.0,26.0,54,0.00,,,0.00,Wunderground v.1.13,2013-10-11 20:03:00,
2013-10-11 15:04:00,70.5,53.1,29.56,SE,130,19.0,26.0,54,0.00,,,0.00,Wunderground v.1.13,2013-10-11 20:04:00,
2013-10-11 15:05:00,70.5,53.6,29.55,ESE,111,19.0,23.0,55,0.00,,,0.00,Wunderground v.1.13,2013-10-11 20:05:00,
2013-10-11 15:08:00,70.5,53.1,29.55,East,100,19.0,35.0,54,0.00,,,0.00,Wunderground v.1.13,2013-10-11 20:08:00,
2013-10-11 15:11:00,70.5,52.5,29.55,ESE,117,21.0,25.0,53,0.00,,,0.00,Wunderground v.1.13,2013-10-11 20:11:00,
2013-10-11 15:13:00,70.5,52.5,29.55,ESE,105,22.0,25.0,53,0.00,,,0.00,Wunderground v.1.13,2013-10-11 20:13:00,
2013-10-11 15:15:00,70.5,52.5,29.55,East,101,22.0,23.0,53,0.00,,,0.00,Wunderground v.1.13,2013-10-11 20:15:00,
2013-10-11 15:17:00,70.6,52.6,29.55,SE,129,23.0,24.0,53,0.00,,,0.00,Wunderground v.1.13,2013-10-11 20:17:00,
2013-10-11 15:18:00,70.6,52.6,29.55,SE,124,23.0,24.0,53,0.00,,,0.00,Wunderground v.1.13,2013-10-11 20:18:00,
2013-10-11 15:19:00,70.6,52.6,29.55,SE,129,22.0,24.0,53,0.00,,,0.00,Wunderground v.1.13,2013-10-11 20:19:00,
2013-10-11 15:24:00,70.4,53.0,29.55,ESE,106,19.0,21.0,54,0.00,,,0.00,Wunderground v.1.13,2013-10-11 20:24:00,
2013-10-11 15:25:00,70.5,52.5,29.55,ESE,114,19.0,19.0,53,0.00,,,0.00,Wunderground v.1.13,2013-10-11 20:25:00,
2013-10-11 15:29:00,70.5,53.6,29.55,ESE,117,18.0,28.0,55,0.00,,,0.00,Wunderground v.1.13,2013-10-11 20:29:00,
2013-10-11 15:31:00,70.7,52.7,29.54,East,95,19.0,24.0,53,0.00,,,0.00,Wunderground v.1.13,2013-10-11 20:31:00,
2013-10-11 15:33:00,70.8,53.3,29.54,ESE,105,19.0,24.0,54,0.00,,,0.00,Wunderground v.1.13,2013-10-11 20:33:00,
2013-10-11 15:35:00,70.9,53.4,29.54,ESE,107,19.0,19.0,54,0.00,,,0.00,Wunderground v.1.13,2013-10-11 20:35:00,
2013-10-11 15:37:00,70.9,53.4,29.54,ESE,117,19.0,26.0,54,0.00,,,0.00,Wunderground v.1.13,2013-10-11 20:37:00,
2013-10-11 15:38:00,70.8,53.3,29.54,SSE,151,19.0,26.0,54,0.00,,,0.00,Wunderground v.1.13,2013-10-11 20:38:00,
2013-10-11 15:39:00,70.7,53.7,29.54,SE,126,20.0,26.0,55,0.00,,,0.00,Wunderground v.1.13,2013-10-11 20:39:00,
2013-10-11 15:43:00,70.7,53.2,29.54,ESE,108,18.0,23.0,54,0.00,,,0.00,Wunderground v.1.13,2013-10-11 20:43:00,
2013-10-11 15:47:00,70.7,52.7,29.54,SE,130,20.0,31.0,53,0.00,,,0.00,Wunderground v.1.13,2013-10-11 20:47:00,
2013-10-11 15:49:00,70.7,52.7,29.54,SE,127,21.0,31.0,53,0.00,,,0.00,Wunderground v.1.13,2013-10-11 20:49:00,
2013-10-11 15:51:00,70.6,52.6,29.54,SE,128,23.0,23.0,53,0.00,,,0.00,Wunderground v.1.13,2013-10-11 20:51:00,
2013-10-11 15:54:00,70.7,52.7,29.54,SE,136,24.0,35.0,53,0.00,,,0.00,Wunderground v.1.13,2013-10-11 20:54:00,
2013-10-11 15:55:00,70.6,52.6,29.54,SE,129,23.0,23.0,53,0.00,,,0.00,Wunderground v.1.13,2013-10-11 20:55:00,
2013-10-11 15:56:00,70.6,53.1,29.55,ESE,121,23.0,24.0,54,0.00,,,0.00,Wunderground v.1.13,2013-10-11 20:56:00,
2013-10-11 16:00:00,70.6,52.6,29.55,ESE,122,20.0,25.0,53,0.00,,,0.00,Wunderground v.1.13,2013-10-11 21:00:00,
2013-10-11 16:01:00,70.7,52.7,29.55,ESE,111,21.0,25.0,53,0.00,,,0.00,Wunderground v.1.13,2013-10-11 21:01:00,
2013-10-11 16:02:00,70.7,53.2,29.54,SE,138,20.0,25.0,54,0.00,,,0.00,Wunderground v.1.13,2013-10-11 21:02:00,
2013-10-11 16:04:00,70.7,52.7,29.55,SE,132,19.0,25.0,53,0.00,,,0.00,Wunderground v.1.13,2013-10-11 21:04:00,
2013-10-11 16:06:00,70.8,52.8,29.56,East,85,18.0,19.0,53,0.00,,,0.00,Wunderground v.1.13,2013-10-11 21:06:00,
2013-10-11 16:08:00,70.7,52.7,29.55,East,88,18.0,25.0,53,0.00,,,0.00,Wunderground v.1.13,2013-10-11 21:08:00,
2013-10-11 16:09:00,70.7,53.2,29.55,East,99,18.0,25.0,54,0.00,,,0.00,Wunderground v.1.13,2013-10-11 21:09:00,
2013-10-11 16:10:00,70.8,52.8,29.55,SSE,155,17.0,17.0,53,0.00,,,0.00,Wunderground v.1.13,2013-10-11 21:10:00,
2013-10-11 16:11:00,70.8,52.8,29.55,ESE,119,17.0,17.0,53,0.00,,,0.00,Wunderground v.1.13,2013-10-11 21:11:00,
2013-10-11 16:15:00,70.8,53.3,29.55,ESE,121,17.0,17.0,54,0.00,,,0.00,Wunderground v.1.13,2013-10-11 21:15:00,
2013-10-11 16:16:00,70.8,53.3,29.55,SE,129,17.0,17.0,54,0.00,,,0.00,Wunderground v.1.13,2013-10-11 21:16:00,
2013-10-11 16:18:00,70.8,52.8,29.55,ESE,106,17.0,18.0,53,0.00,,,0.00,Wunderground v.1.13,2013-10-11 21:18:00,
2013-10-11 16:20:00,70.7,52.7,29.55,SE,125,17.0,17.0,53,0.00,,,0.00,Wunderground v.1.13,2013-10-11 21:20:00,
2013-10-11 16:21:00,70.7,52.7,29.55,ESE,118,17.0,17.0,53,0.00,,,0.00,Wunderground v.1.13,2013-10-11 21:21:00,
2013-10-11 16:23:00,70.8,52.8,29.55,ESE,102,18.0,20.0,53,0.00,,,0.00,Wunderground v.1.13,2013-10-11 21:23:00,
2013-10-11 16:24:00,70.8,53.3,29.56,SE,130,18.0,22.0,54,0.00,,,0.00,Wunderground v.1.13,2013-10-11 21:24:00,
2013-10-11 16:27:00,70.8,52.8,29.55,SE,126,18.0,31.0,53,0.00,,,0.00,Wunderground v.1.13,2013-10-11 21:27:00,
2013-10-11 16:28:00,70.7,52.7,29.55,SE,131,19.0,31.0,53,0.00,,,0.00,Wunderground v.1.13,2013-10-11 21:28:00,
2013-10-11 16:29:00,70.8,52.8,29.55,ESE,122,18.0,31.0,53,0.00,,,0.00,Wunderground v.1.13,2013-10-11 21:29:00,
2013-10-11 16:33:00,70.9,52.9,29.55,SE,128,20.0,24.0,53,0.00,,,0.00,Wunderground v.1.13,2013-10-11 21:33:00,
2013-10-11 16:34:00,70.8,52.8,29.55,SE,128,20.0,32.0,53,0.00,,,0.00,Wunderground v.1.13,2013-10-11 21:34:00,
2013-10-11 16:35:00,70.9,52.9,29.55,ESE,115,21.0,21.0,53,0.00,,,0.00,Wunderground v.1.13,2013-10-11 21:35:00,
2013-10-11 16:39:00,71.0,53.0,29.55,ESE,112,21.0,28.0,53,0.00,,,0.00,Wunderground v.1.13,2013-10-11 21:39:00,
2013-10-11 16:41:00,71.0,53.0,29.55,SE,136,22.0,26.0,53,0.00,,,0.00,Wunderground v.1.13,2013-10-11 21:41:00,
2013-10-11 16:43:00,71.0,53.0,29.55,ESE,122,22.0,29.0,53,0.00,,,0.00,Wunderground v.1.13,2013-10-11 21:43:00,
2013-10-11 16:44:00,71.0,52.5,29.55,ESE,115,22.0,29.0,52,0.00,,,0.00,Wunderground v.1.13,2013-10-11 21:44:00,
2013-10-11 16:46:00,71.0,53.0,29.55,ESE,109,21.0,23.0,53,0.00,,,0.00,Wunderground v.1.13,2013-10-11 21:46:00,
2013-10-11 16:48:00,70.8,52.8,29.55,SE,130,21.0,23.0,53,0.00,,,0.00,Wunderground v.1.13,2013-10-11 21:48:00,
2013-10-11 16:49:00,70.8,52.8,29.55,ESE,119,21.0,23.0,53,0.00,,,0.00,Wunderground v.1.13,2013-10-11 21:49:00,
2013-10-11 16:50:00,70.8,52.8,29.55,SE,124,19.0,19.0,53,0.00,,,0.00,Wunderground v.1.13,2013-10-11 21:50:00,
2013-10-11 16:52:00,70.8,52.3,29.55,ESE,119,18.0,20.0,52,0.00,,,0.00,Wunderground v.1.13,2013-10-11 21:52:00,
2013-10-11 16:53:00,70.8,52.3,29.55,SE,146,17.0,20.0,52,0.00,,,0.00,Wunderground v.1.13,2013-10-11 21:53:00,
2013-10-11 16:54:00,70.9,52.4,29.55,SE,126,18.0,22.0,52,0.00,,,0.00,Wunderground v.1.13,2013-10-11 21:54:00,
2013-10-11 16:58:00,71.0,53.0,29.55,East,83,17.0,23.0,53,0.00,,,0.00,Wunderground v.1.13,2013-10-11 21:58:00,
2013-10-11 16:59:00,71.0,52.5,29.55,SE,124,17.0,23.0,52,0.00,,,0.00,Wunderground v.1.13,2013-10-11 21:59:00,
2013-10-11 17:00:00,71.0,53.0,29.55,ESE,117,18.0,21.0,53,0.00,,,0.00,Wunderground v.1.13,2013-10-11 22:00:00,
2013-10-11 17:03:00,70.9,52.9,29.55,ESE,121,18.0,21.0,53,0.00,,,0.00,Wunderground v.1.13,2013-10-11 22:03:00,
2013-10-11 17:04:00,70.9,52.4,29.55,ESE,120,17.0,21.0,52,0.00,,,0.00,Wunderground v.1.13,2013-10-11 22:04:00,
2013-10-11 17:05:00,70.9,52.9,29.56,SE,126,17.0,17.0,53,0.00,,,0.00,Wunderground v.1.13,2013-10-11 22:05:00,
2013-10-11 17:06:00,70.8,53.3,29.56,ESE,123,17.0,21.0,54,0.00,,,0.00,Wunderground v.1.13,2013-10-11 22:06:00,
2013-10-11 17:09:00,71.0,53.0,29.56,SSE,150,17.0,21.0,53,0.00,,,0.00,Wunderground v.1.13,2013-10-11 22:09:00,
2013-10-11 17:10:00,71.0,53.0,29.55,ESE,111,17.0,17.0,53,0.00,,,0.00,Wunderground v.1.13,2013-10-11 22:10:00,
2013-10-11 17:11:00,71.0,53.0,29.56,ESE,105,17.0,17.0,53,0.00,,,0.00,Wunderground v.1.13,2013-10-11 22:11:00,
2013-10-11 17:12:00,71.0,53.0,29.56,SE,130,17.0,20.0,53,0.00,,,0.00,Wunderground v.1.13,2013-10-11 22:12:00,
2013-10-11 17:15:00,71.0,52.5,29.56,ESE,119,18.0,18.0,52,0.00,,,0.00,Wunderground v.1.13,2013-10-11 22:15:00,
2013-10-11 17:16:00,71.0,53.0,29.56,SSE,150,19.0,19.0,53,0.00,,,0.00,Wunderground v.1.13,2013-10-11 22:16:00,
2013-10-11 17:17:00,71.0,53.0,29.56,ESE,108,18.0,19.0,53,0.00,,,0.00,Wunderground v.1.13,2013-10-11 22:17:00,
2013-10-11 17:18:00,71.0,53.0,29.56,ESE,113,18.0,19.0,53,0.00,,,0.00,Wunderground v.1.13,2013-10-11 22:18:00,
2013-10-11 17:21:00,70.9,52.9,29.56,SE,126,16.0,17.0,53,0.00,,,0.00,Wunderground v.1.13,2013-10-11 22:21:00,
2013-10-11 17:22:00,70.9,52.9,29.56,ESE,123,16.0,17.0,53,0.00,,,0.00,Wunderground v.1.13,2013-10-11 22:22:00,
2013-10-11 17:24:00,71.0,53.0,29.56,East,100,16.0,19.0,53,0.00,,,0.00,Wunderground v.1.13,2013-10-11 22:24:00,
2013-10-11 17:25:00,71.0,53.0,29.56,East,80,15.0,15.0,53,0.00,,,0.00,Wunderground v.1.13,2013-10-11 22:25:00,
2013-10-11 17:27:00,71.1,52.6,29.56,ESE,110,15.0,24.0,52,0.00,,,0.00,Wunderground v.1.13,2013-10-11 22:27:00,
2013-10-11 17:29:00,71.1,53.1,29.56,SE,125,16.0,34.0,53,0.00,,,0.00,Wunderground v.1.13,2013-10-11 22:29:00,
2013-10-11 17:30:00,71.0,53.5,29.56,ESE,123,16.0,16.0,54,0.00,,,0.00,Wunderground v.1.13,2013-10-11 22:30:00,
2013-10-11 17:31:00,71.0,53.0,29.56,ESE,122,16.0,26.0,53,0.00,,,0.00,Wunderground v.1.13,2013-10-11 22:31:00,
2013-10-11 17:32:00,71.0,53.0,29.56,SSE,148,16.0,26.0,53,0.00,,,0.00,Wunderground v.1.13,2013-10-11 22:32:00,
2013-10-11 17:36:00,70.8,52.8,29.56,ESE,122,16.0,21.0,53,0.00,,,0.00,Wunderground v.1.13,2013-10-11 22:36:00,
2013-10-11 17:38:00,70.8,52.8,29.56,SE,127,16.0,27.0,53,0.00,,,0.00,Wunderground v.1.13,2013-10-11 22:38:00,
2013-10-11 17:40:00,71.0,53.0,29.56,ESE,117,17.0,17.0,53,0.00,,,0.00,Wunderground v.1.13,2013-10-11 22:40:00,
2013-10-11 17:41:00,71.0,53.0,29.56,ESE,115,17.0,19.0,53,0.00,,,0.00,Wunderground v.1.13,2013-10-11 22:41:00,
2013-10-11 17:42:00,71.0,52.5,29.55,SE,129,17.0,21.0,52,0.00,,,0.00,Wunderground v.1.13,2013-10-11 22:42:00,
2013-10-11 17:43:00,71.1,52.6,29.55,SE,128,17.0,21.0,52,0.00,,,0.00,Wunderground v.1.13,2013-10-11 22:43:00,
2013-10-11 17:44:00,71.0,53.0,29.56,ESE,111,17.0,21.0,53,0.00,,,0.00,Wunderground v.1.13,2013-10-11 22:44:00,
2013-10-11 17:47:00,70.9,52.9,29.56,SE,126,18.0,22.0,53,0.00,,,0.00,Wunderground v.1.13,2013-10-11 22:47:00,
2013-10-11 17:49:00,70.9,52.4,29.55,ESE,123,17.0,22.0,52,0.00,,,0.00,Wunderground v.1.13,2013-10-11 22:49:00,
2013-10-11 17:50:00,71.0,53.0,29.56,SE,132,17.0,21.0,53,0.00,,,0.00,Wunderground v.1.13,2013-10-11 22:50:00,
2013-10-11 17:51:00,71.0,53.0,29.56,ESE,105,17.0,21.0,53,0.00,,,0.00,Wunderground v.1.13,2013-10-11 22:51:00,
2013-10-11 17:54:00,70.8,52.8,29.56,SE,126,17.0,23.0,53,0.00,,,0.00,Wunderground v.1.13,2013-10-11 22:54:00,
2013-10-11 17:56:00,70.8,52.8,29.55,SE,131,18.0,21.0,53,0.00,,,0.00,Wunderground v.1.13,2013-10-11 22:56:00,
2013-10-11 17:57:00,70.8,53.3,29.56,ESE,113,18.0,21.0,54,0.00,,,0.00,Wunderground v.1.13,2013-10-11 22:57:00,
2013-10-11 17:58:00,70.8,53.3,29.56,ESE,121,17.0,21.0,54,0.00,,,0.00,Wunderground v.1.13,2013-10-11 22:58:00,
2013-10-11 18:02:00,70.8,52.8,29.56,SSE,160,18.0,18.0,53,0.00,,,0.00,Wunderground v.1.13,2013-10-11 23:02:00,
2013-10-11 18:03:00,70.8,53.3,29.56,ESE,122,18.0,18.0,54,0.00,,,0.00,Wunderground v.1.13,2013-10-11 23:03:00,
2013-10-11 18:04:00,70.7,53.2,29.56,SE,126,17.0,18.0,54,0.00,,,0.00,Wunderground v.1.13,2013-10-11 23:04:00,
2013-10-11 18:06:00,70.6,52.6,29.56,SE,126,16.0,17.0,53,0.00,,,0.00,Wunderground v.1.13,2013-10-11 23:06:00,
2013-10-11 18:08:00,70.7,52.7,29.56,ESE,109,16.0,26.0,53,0.00,,,0.00,Wunderground v.1.13,2013-10-11 23:08:00,
2013-10-11 18:09:00,70.7,52.7,29.55,SE,145,15.0,26.0,53,0.00,,,0.00,Wunderground v.1.13,2013-10-11 23:09:00,
2013-10-11 18:10:00,70.7,52.7,29.55,SE,136,15.0,15.0,53,0.00,,,0.00,Wunderground v.1.13,2013-10-11 23:10:00,
2013-10-11 18:11:00,70.8,52.8,29.56,ESE,119,15.0,15.0,53,0.00,,,0.00,Wunderground v.1.13,2013-10-11 23:11:00,
2013-10-11 18:15:00,70.6,52.6,29.56,SE,133,16.0,16.0,53,0.00,,,0.00,Wunderground v.1.13,2013-10-11 23:15:00,
2013-10-11 18:16:00,70.6,53.1,29.56,SE,132,16.0,16.0,54,0.00,,,0.00,Wunderground v.1.13,2013-10-11 23:16:00,
2013-10-11 18:17:00,70.6,53.1,29.56,SE,125,15.0,16.0,54,0.00,,,0.00,Wunderground v.1.13,2013-10-11 23:17:00,
2013-10-11 18:18:00,70.6,53.1,29.56,ESE,123,15.0,22.0,54,0.00,,,0.00,Wunderground v.1.13,2013-10-11 23:18:00,
2013-10-11 18:20:00,70.6,52.6,29.56,SE,138,15.0,15.0,53,0.00,,,0.00,Wunderground v.1.13,2013-10-11 23:20:00,
2013-10-11 18:22:00,70.6,53.1,29.56,ESE,114,14.0,15.0,54,0.00,,,0.00,Wunderground v.1.13,2013-10-11 23:22:00,
2013-10-11 18:23:00,70.6,53.1,29.56,ESE,117,14.0,15.0,54,0.00,,,0.00,Wunderground v.1.13,2013-10-11 23:23:00,
2013-10-11 18:24:00,70.6,53.1,29.56,ESE,114,14.0,15.0,54,0.00,,,0.00,Wunderground v.1.13,2013-10-11 23:24:00,
2013-10-11 18:25:00,70.5,53.1,29.56,ESE,121,13.0,13.0,54,0.00,,,0.00,Wunderground v.1.13,2013-10-11 23:25:00,
2013-10-11 18:28:00,70.6,53.1,29.56,ESE,113,13.0,14.0,54,0.00,,,0.00,Wunderground v.1.13,2013-10-11 23:28:00,
2013-10-11 18:30:00,70.6,53.1,29.56,SE,134,13.0,16.0,54,0.00,,,0.00,Wunderground v.1.13,2013-10-11 23:30:00,
2013-10-11 18:31:00,70.7,52.7,29.56,South,184,13.0,16.0,53,0.00,,,0.00,Wunderground v.1.13,2013-10-11 23:31:00,
2013-10-11 18:32:00,70.7,53.2,29.56,SE,126,13.0,16.0,54,0.00,,,0.00,Wunderground v.1.13,2013-10-11 23:32:00,
2013-10-11 18:36:00,70.7,53.2,29.56,ESE,119,14.0,14.0,54,0.00,,,0.00,Wunderground v.1.13,2013-10-11 23:36:00,
2013-10-11 18:37:00,70.7,53.2,29.56,SE,133,14.0,14.0,54,0.00,,,0.00,Wunderground v.1.13,2013-10-11 23:37:00,
2013-10-11 18:38:00,70.6,53.1,29.56,ESE,117,14.0,14.0,54,0.00,,,0.00,Wunderground v.1.13,2013-10-11 23:38:00,
2013-10-11 18:40:00,70.6,53.1,29.56,ESE,110,13.0,13.0,54,0.00,,,0.00,Wunderground v.1.13,2013-10-11 23:40:00,
2013-10-11 18:42:00,70.5,53.6,29.56,ESE,107,12.0,13.0,55,0.00,,,0.00,Wunderground v.1.13,2013-10-11 23:42:00,
2013-10-11 18:43:00,70.5,53.6,29.56,ESE,118,12.0,13.0,55,0.00,,,0.00,Wunderground v.1.13,2013-10-11 23:43:00,
2013-10-11 18:44:00,70.5,53.1,29.56,ESE,121,12.0,13.0,54,0.00,,,0.00,Wunderground v.1.13,2013-10-11 23:44:00,
2013-10-11 18:48:00,70.5,53.6,29.56,SE,139,11.0,12.0,55,0.00,,,0.00,Wunderground v.1.13,2013-10-11 23:48:00,
2013-10-11 18:49:00,70.5,53.6,29.56,ESE,115,11.0,12.0,55,0.00,,,0.00,Wunderground v.1.13,2013-10-11 23:49:00,
2013-10-11 18:50:00,70.4,53.5,29.56,ESE,107,11.0,11.0,55,0.00,,,0.00,Wunderground v.1.13,2013-10-11 23:50:00,
2013-10-11 18:51:00,70.4,54.0,29.55,SE,130,11.0,11.0,56,0.00,,,0.00,Wunderground v.1.13,2013-10-11 23:51:00,
2013-10-11 18:56:00,70.4,54.0,29.55,ESE,121,12.0,16.0,56,0.00,,,0.00,Wunderground v.1.13,2013-10-11 23:56:00,
2013-10-11 18:57:00,70.4,54.0,29.56,ESE,110,12.0,16.0,56,0.00,,,0.00,Wunderground v.1.13,2013-10-11 23:57:00,
2013-10-11 18:58:00,70.4,54.0,29.55,ESE,123,12.0,16.0,56,0.00,,,0.00,Wunderground v.1.13,2013-10-11 23:58:00,
2013-10-11 18:59:00,70.4,54.0,29.55,ESE,119,12.0,16.0,56,0.00,,,0.00,Wunderground v.1.13,2013-10-11 23:59:00,
2013-10-11 19:01:00,70.4,54.0,29.56,ESE,115,12.0,18.0,56,0.00,,,0.00,Wunderground v.1.13,2013-10-12 00:01:00,
2013-10-11 19:02:00,70.4,54.0,29.56,ESE,121,12.0,18.0,56,0.00,,,0.00,Wunderground v.1.13,2013-10-12 00:02:00,
2013-10-11 19:05:00,70.5,53.6,29.55,ESE,119,12.0,12.0,55,0.00,,,0.00,Wunderground v.1.13,2013-10-12 00:05:00,
2013-10-11 19:07:00,70.5,54.0,29.55,SE,125,12.0,12.0,56,0.00,,,0.00,Wunderground v.1.13,2013-10-12 00:07:00,
2013-10-11 19:09:00,70.4,54.0,29.55,SE,126,12.0,12.0,56,0.00,,,0.00,Wunderground v.1.13,2013-10-12 00:09:00,
2013-10-11 19:10:00,70.3,53.9,29.55,ESE,119,12.0,12.0,56,0.00,,,0.00,Wunderground v.1.13,2013-10-12 00:10:00,
2013-10-11 19:14:00,70.2,54.2,29.55,ESE,121,11.0,15.0,57,0.00,,,0.00,Wunderground v.1.13,2013-10-12 00:14:00,
2013-10-11 19:15:00,70.3,53.9,29.55,ESE,123,11.0,14.0,56,0.00,,,0.00,Wunderground v.1.13,2013-10-12 00:15:00,
2013-10-11 19:16:00,70.3,53.9,29.55,East,97,11.0,14.0,56,0.00,,,0.00,Wunderground v.1.13,2013-10-12 00:16:00,
2013-10-11 19:18:00,70.3,54.3,29.55,SE,133,10.0,14.0,57,0.00,,,0.00,Wunderground v.1.13,2013-10-12 00:18:00,
2013-10-11 19:22:00,70.6,53.6,29.55,ESE,120,11.0,13.0,55,0.00,,,0.00,Wunderground v.1.13,2013-10-12 00:22:00,
2013-10-11 19:23:00,70.6,54.1,29.55,SE,138,11.0,13.0,56,0.00,,,0.00,Wunderground v.1.13,2013-10-12 00:23:00,
2013-10-11 19:24:00,70.5,54.0,29.55,ESE,116,11.0,13.0,56,0.00,,,0.00,Wunderground v.1.13,2013-10-12 00:24:00,
2013-10-11 19:25:00,70.6,54.1,29.55,ESE,114,11.0,12.0,56,0.00,,,0.00,Wunderground v.1.13,2013-10-12 00:25:00,
2013-10-11 19:27:00,70.5,54.5,29.55,ESE,109,11.0,12.0,57,0.00,,,0.00,Wunderground v.1.13,2013-10-12 00:27:00,
2013-10-11 19:28:00,70.4,54.0,29.55,SE,128,10.0,12.0,56,0.00,,,0.00,Wunderground v.1.13,2013-10-12 00:28:00,
2013-10-11 19:31:00,70.5,54.0,29.55,ESE,123,10.0,12.0,56,0.00,,,0.00,Wunderground v.1.13,2013-10-12 00:31:00,
2013-10-11 19:32:00,70.5,54.5,29.55,ENE,74,11.0,12.0,57,0.00,,,0.00,Wunderground v.1.13,2013-10-12 00:32:00,
2013-10-11 19:33:00,70.5,54.0,29.55,ESE,113,10.0,12.0,56,0.00,,,0.00,Wunderground v.1.13,2013-10-12 00:33:00,
2013-10-11 19:34:00,70.6,53.6,29.55,SE,140,10.0,13.0,55,0.00,,,0.00,Wunderground v.1.13,2013-10-12 00:34:00,
2013-10-11 19:37:00,70.8,53.8,29.55,SE,132,11.0,15.0,55,0.00,,,0.00,Wunderground v.1.13,2013-10-12 00:37:00,
2013-10-11 19:39:00,70.7,54.2,29.55,SE,136,12.0,15.0,56,0.00,,,0.00,Wunderground v.1.13,2013-10-12 00:39:00,
2013-10-11 19:40:00,70.7,54.2,29.55,SE,145,11.0,12.0,56,0.00,,,0.00,Wunderground v.1.13,2013-10-12 00:40:00,
2013-10-11 19:42:00,70.8,53.8,29.55,ESE,118,11.0,12.0,55,0.00,,,0.00,Wunderground v.1.13,2013-10-12 00:42:00,
2013-10-11 19:43:00,70.8,53.8,29.55,SE,126,11.0,14.0,55,0.00,,,0.00,Wunderground v.1.13,2013-10-12 00:43:00,
2013-10-11 19:46:00,71.0,54.0,29.55,SE,141,12.0,12.0,55,0.00,,,0.00,Wunderground v.1.13,2013-10-12 00:46:00,
2013-10-11 19:49:00,71.0,53.5,29.55,SE,129,11.0,12.0,54,0.00,,,0.00,Wunderground v.1.13,2013-10-12 00:49:00,
2013-10-11 19:50:00,71.0,53.5,29.55,SE,127,11.0,15.0,54,0.00,,,0.00,Wunderground v.1.13,2013-10-12 00:50:00,
2013-10-11 19:52:00,71.0,54.0,29.55,ESE,117,11.0,15.0,55,0.00,,,0.00,Wunderground v.1.13,2013-10-12 00:52:00,
2013-10-11 19:55:00,71.0,54.0,29.54,ESE,119,11.0,11.0,55,0.00,,,0.00,Wunderground v.1.13,2013-10-12 00:55:00,
2013-10-11 19:56:00,70.9,53.9,29.54,SE,131,11.0,12.0,55,0.00,,,0.00,Wunderground v.1.13,2013-10-12 00:56:00,
2013-10-11 19:59:00,70.9,53.9,29.54,ESE,117,12.0,20.0,55,0.00,,,0.00,Wunderground v.1.13,2013-10-12 00:59:00,
2013-10-11 20:01:00,70.8,54.3,29.54,SE,133,13.0,15.0,56,0.00,,,0.00,Wunderground v.1.13,2013-10-12 01:01:00,
2013-10-11 20:04:00,70.8,53.8,29.53,ESE,123,13.0,15.0,55,0.00,,,0.00,Wunderground v.1.13,2013-10-12 01:04:00,
2013-10-11 20:05:00,70.8,54.3,29.53,ESE,110,14.0,20.0,56,0.00,,,0.00,Wunderground v.1.13,2013-10-12 01:05:00,
2013-10-11 20:06:00,70.8,53.8,29.53,ESE,105,15.0,20.0,55,0.00,,,0.00,Wunderground v.1.13,2013-10-12 01:06:00,
2013-10-11 20:10:00,70.7,53.7,29.52,East,98,16.0,16.0,55,0.00,,,0.00,Wunderground v.1.13,2013-10-12 01:10:00,
2013-10-11 20:11:00,70.7,54.2,29.53,SE,125,15.0,16.0,56,0.00,,,0.00,Wunderground v.1.13,2013-10-12 01:11:00,
2013-10-11 20:12:00,70.6,54.1,29.53,ESE,119,16.0,16.0,56,0.00,,,0.00,Wunderground v.1.13,2013-10-12 01:12:00,
2013-10-11 20:15:00,70.6,53.6,29.52,East,98,15.0,15.0,55,0.00,,,0.00,Wunderground v.1.13,2013-10-12 01:15:00,
2013-10-11 20:16:00,70.5,54.0,29.52,ESE,114,15.0,18.0,56,0.00,,,0.00,Wunderground v.1.13,2013-10-12 01:16:00,
2013-10-11 20:17:00,70.5,54.0,29.52,SE,125,15.0,18.0,56,0.00,,,0.00,Wunderground v.1.13,2013-10-12 01:17:00,
2013-10-11 20:18:00,70.5,54.0,29.52,SE,143,14.0,20.0,56,0.00,,,0.00,Wunderground v.1.13,2013-10-12 01:18:00,
2013-10-11 20:22:00,70.4,54.4,29.53,ESE,121,13.0,18.0,57,0.00,,,0.00,Wunderground v.1.13,2013-10-12 01:22:00,
2013-10-11 20:23:00,70.3,53.9,29.53,ESE,109,13.0,18.0,56,0.00,,,0.00,Wunderground v.1.13,2013-10-12 01:23:00,
2013-10-11 20:27:00,70.3,54.3,29.52,ESE,118,14.0,23.0,57,0.00,,,0.00,Wunderground v.1.13,2013-10-12 01:27:00,
2013-10-11 20:28:00,70.2,54.2,29.52,ESE,111,14.0,23.0,57,0.00,,,0.00,Wunderground v.1.13,2013-10-12 01:28:00,
2013-10-11 20:31:00,70.1,54.2,29.52,ESE,123,15.0,15.0,57,0.00,,,0.00,Wunderground v.1.13,2013-10-12 01:31:00,
2013-10-11 20:32:00,70.1,54.2,29.52,SE,126,15.0,21.0,57,0.00,,,0.00,Wunderground v.1.13,2013-10-12 01:32:00,
2013-10-11 20:33:00,70.2,54.7,29.52,SE,138,16.0,21.0,58,0.00,,,0.00,Wunderground v.1.13,2013-10-12 01:33:00,
2013-10-11 20:34:00,70.2,54.2,29.52,ESE,120,17.0,21.0,57,0.00,,,0.00,Wunderground v.1.13,2013-10-12 01:34:00,
2013-10-11 20:37:00,70.2,54.2,29.51,SE,126,18.0,27.0,57,0.00,,,0.00,Wunderground v.1.13,2013-10-12 01:37:00,
2013-10-11 20:39:00,70.2,54.2,29.51,SE,138,19.0,27.0,57,0.00,,,0.00,Wunderground v.1.13,2013-10-12 01:39:00,
2013-10-11 20:40:00,70.2,54.2,29.51,ESE,116,19.0,27.0,57,0.00,,,0.00,Wunderground v.1.13,2013-10-12 01:40:00,
2013-10-11 20:42:00,70.1,54.6,29.51,ESE,119,19.0,19.0,58,0.00,,,0.00,Wunderground v.1.13,2013-10-12 01:42:00,
2013-10-11 20:44:00,70.0,54.5,29.51,ESE,113,17.0,20.0,58,0.00,,,0.00,Wunderground v.1.13,2013-10-12 01:44:00,
2013-10-11 20:46:00,69.9,54.4,29.51,SE,128,16.0,16.0,58,0.00,,,0.00,Wunderground v.1.13,2013-10-12 01:46:00,
2013-10-11 20:48:00,69.9,54.4,29.51,ESE,115,16.0,18.0,58,0.00,,,0.00,Wunderground v.1.13,2013-10-12 01:48:00,
2013-10-11 20:49:00,69.9,54.4,29.51,SE,136,15.0,18.0,58,0.00,,,0.00,Wunderground v.1.13,2013-10-12 01:49:00,
2013-10-11 20:50:00,69.9,54.4,29.51,SSE,155,16.0,18.0,58,0.00,,,0.00,Wunderground v.1.13,2013-10-12 01:50:00,
2013-10-11 20:51:00,69.9,54.4,29.51,SE,125,15.0,15.0,58,0.00,,,0.00,Wunderground v.1.13,2013-10-12 01:51:00,
2013-10-11 20:52:00,69.9,54.4,29.51,SSW,203,15.0,15.0,58,0.00,,,0.00,Wunderground v.1.13,2013-10-12 01:52:00,
2013-10-11 20:53:00,69.9,54.4,29.51,ESE,103,14.0,15.0,58,0.00,,,0.00,Wunderground v.1.13,2013-10-12 01:53:00,
2013-10-11 20:55:00,69.9,54.4,29.51,ESE,113,14.0,21.0,58,0.00,,,0.00,Wunderground v.1.13,2013-10-12 01:55:00,
2013-10-11 20:56:00,69.9,54.9,29.51,ESE,121,14.0,15.0,59,0.00,,,0.00,Wunderground v.1.13,2013-10-12 01:56:00,
2013-10-11 20:58:00,69.8,54.8,29.51,ESE,114,14.0,15.0,59,0.00,,,0.00,Wunderground v.1.13,2013-10-12 01:58:00,
2013-10-11 21:00:00,69.8,54.8,29.51,SSE,154,14.0,19.0,59,0.00,,,0.00,Wunderground v.1.13,2013-10-12 02:00:00,
2013-10-11 21:01:00,69.7,55.2,29.51,ESE,102,14.0,19.0,60,0.00,,,0.00,Wunderground v.1.13,2013-10-12 02:01:00,
2013-10-11 21:03:00,69.8,55.3,29.51,ESE,119,14.0,19.0,60,0.00,,,0.00,Wunderground v.1.13,2013-10-12 02:03:00,
2013-10-11 21:05:00,69.7,55.2,29.51,ENE,62,14.0,14.0,60,0.00,,,0.00,Wunderground v.1.13,2013-10-12 02:05:00,
2013-10-11 21:08:00,69.5,55.0,29.51,SE,125,12.0,18.0,60,0.00,,,0.00,Wunderground v.1.13,2013-10-12 02:08:00,
2013-10-11 21:09:00,69.5,55.0,29.51,ESE,107,12.0,21.0,60,0.00,,,0.00,Wunderground v.1.13,2013-10-12 02:09:00,
2013-10-11 21:10:00,69.5,55.5,29.51,SSE,153,12.0,21.0,61,0.00,,,0.00,Wunderground v.1.13,2013-10-12 02:10:00,
2013-10-11 21:11:00,69.5,55.0,29.51,ESE,119,12.0,21.0,60,0.00,,,0.00,Wunderground v.1.13,2013-10-12 02:11:00,
2013-10-11 21:13:00,69.6,55.6,29.51,SE,136,12.0,21.0,61,0.00,,,0.00,Wunderground v.1.13,2013-10-12 02:13:00,
2013-10-11 21:14:00,69.6,55.6,29.51,ESE,111,11.0,21.0,61,0.00,,,0.00,Wunderground v.1.13,2013-10-12 02:14:00,
2013-10-11 21:17:00,69.6,55.6,29.51,SE,131,13.0,20.0,61,0.00,,,0.00,Wunderground v.1.13,2013-10-12 02:17:00,
2013-10-11 21:18:00,69.6,55.6,29.51,SSE,149,13.0,20.0,61,0.00,,,0.00,Wunderground v.1.13,2013-10-12 02:18:00,
2013-10-11 21:19:00,69.6,55.6,29.51,SE,134,13.0,20.0,61,0.00,,,0.00,Wunderground v.1.13,2013-10-12 02:19:00,
2013-10-11 21:21:00,69.6,56.0,29.51,East,98,13.0,15.0,62,0.00,,,0.00,Wunderground v.1.13,2013-10-12 02:21:00,
2013-10-11 21:22:00,69.6,56.0,29.51,ESE,109,13.0,15.0,62,0.00,,,0.00,Wunderground v.1.13,2013-10-12 02:22:00,
2013-10-11 21:24:00,69.5,55.9,29.51,ESE,117,13.0,15.0,62,0.00,,,0.00,Wunderground v.1.13,2013-10-12 02:24:00,
2013-10-11 21:25:00,69.4,55.8,29.51,SE,133,13.0,13.0,62,0.00,,,0.00,Wunderground v.1.13,2013-10-12 02:25:00,
2013-10-11 21:26:00,69.4,55.8,29.51,ESE,113,12.0,13.0,62,0.00,,,0.00,Wunderground v.1.13,2013-10-12 02:26:00,
2013-10-11 21:27:00,69.4,56.3,29.51,SSE,150,13.0,15.0,63,0.00,,,0.00,Wunderground v.1.13,2013-10-12 02:27:00,
2013-10-11 21:29:00,69.4,56.3,29.51,ESE,119,13.0,22.0,63,0.00,,,0.00,Wunderground v.1.13,2013-10-12 02:29:00,
2013-10-11 21:32:00,69.4,56.3,29.51,ESE,121,12.0,13.0,63,0.00,,,0.00,Wunderground v.1.13,2013-10-12 02:32:00,
2013-10-11 21:34:00,69.2,56.5,29.51,SE,134,12.0,13.0,64,0.00,,,0.00,Wunderground v.1.13,2013-10-12 02:34:00,
2013-10-11 21:36:00,69.3,56.6,29.52,ESE,104,12.0,12.0,64,0.00,,,0.00,Wunderground v.1.13,2013-10-12 02:36:00,
2013-10-11 21:38:00,69.3,56.6,29.51,SSE,157,11.0,12.0,64,0.00,,,0.00,Wunderground v.1.13,2013-10-12 02:38:00,
2013-10-11 21:40:00,69.4,56.7,29.51,ESE,123,10.0,10.0,64,0.00,,,0.00,Wunderground v.1.13,2013-10-12 02:40:00,
2013-10-11 21:41:00,69.3,56.6,29.51,SE,126,10.0,11.0,64,0.00,,,0.00,Wunderground v.1.13,2013-10-12 02:41:00,
2013-10-11 21:43:00,69.3,56.6,29.51,SE,128,11.0,11.0,64,0.00,,,0.00,Wunderground v.1.13,2013-10-12 02:43:00,
2013-10-11 21:44:00,69.3,56.6,29.51,SE,146,10.0,11.0,64,0.00,,,0.00,Wunderground v.1.13,2013-10-12 02:44:00,
2013-10-11 21:45:00,69.3,56.6,29.51,SE,126,10.0,11.0,64,0.00,,,0.00,Wunderground v.1.13,2013-10-12 02:45:00,
2013-10-11 21:46:00,69.3,56.6,29.51,ESE,106,9.0,11.0,64,0.00,,,0.00,Wunderground v.1.13,2013-10-12 02:46:00,
2013-10-11 21:47:00,69.3,57.0,29.52,SE,134,9.0,11.0,65,0.00,,,0.00,Wunderground v.1.13,2013-10-12 02:47:00,
2013-10-11 21:48:00,69.3,57.0,29.52,NNE,18,9.0,11.0,65,0.00,,,0.00,Wunderground v.1.13,2013-10-12 02:48:00,
2013-10-11 21:51:00,69.2,56.9,29.51,South,177,8.0,8.0,65,0.00,,,0.00,Wunderground v.1.13,2013-10-12 02:51:00,
2013-10-11 21:52:00,69.2,56.9,29.51,SE,131,8.0,8.0,65,0.00,,,0.00,Wunderground v.1.13,2013-10-12 02:52:00,
2013-10-11 21:53:00,69.2,56.9,29.51,SE,146,8.0,8.0,65,0.00,,,0.00,Wunderground v.1.13,2013-10-12 02:53:00,
2013-10-11 21:57:00,69.2,57.4,29.52,SE,131,8.0,16.0,66,0.00,,,0.00,Wunderground v.1.13,2013-10-12 02:57:00,
2013-10-11 21:58:00,69.3,57.5,29.52,NW,317,8.0,16.0,66,0.00,,,0.00,Wunderground v.1.13,2013-10-12 02:58:00,
2013-10-11 21:59:00,69.3,57.5,29.51,ESE,109,8.0,16.0,66,0.00,,,0.00,Wunderground v.1.13,2013-10-12 02:59:00,
2013-10-11 22:02:00,69.3,57.5,29.52,ENE,67,8.0,8.0,66,0.00,,,0.00,Wunderground v.1.13,2013-10-12 03:02:00,
2013-10-11 22:03:00,69.2,57.4,29.52,SW,219,9.0,9.0,66,0.00,,,0.00,Wunderground v.1.13,2013-10-12 03:03:00,
2013-10-11 22:04:00,69.2,57.4,29.51,SSE,165,9.0,9.0,66,0.00,,,0.00,Wunderground v.1.13,2013-10-12 03:04:00,
2013-10-11 22:08:00,69.3,57.9,29.51,South,190,8.0,8.0,67,0.00,,,0.00,Wunderground v.1.13,2013-10-12 03:08:00,
2013-10-11 22:09:00,69.3,57.9,29.51,ESE,120,8.0,8.0,67,0.00,,,0.00,Wunderground v.1.13,2013-10-12 03:09:00,
2013-10-11 22:10:00,69.3,57.9,29.51,ENE,67,7.0,7.0,67,0.00,,,0.00,Wunderground v.1.13,2013-10-12 03:10:00,
2013-10-11 22:11:00,69.2,57.8,29.52,ESE,104,7.0,7.0,67,0.00,,,0.00,Wunderground v.1.13,2013-10-12 03:11:00,
2013-10-11 22:14:00,69.1,58.1,29.52,NE,46,6.0,8.0,68,0.00,,,0.00,Wunderground v.1.13,2013-10-12 03:14:00,
2013-10-11 22:15:00,69.0,58.0,29.52,South,172,6.0,6.0,68,0.00,,,0.00,Wunderground v.1.13,2013-10-12 03:15:00,
2013-10-11 22:17:00,68.9,58.3,29.51,East,96,6.0,7.0,69,0.00,,,0.00,Wunderground v.1.13,2013-10-12 03:17:00,
2013-10-11 22:18:00,68.8,58.2,29.51,WSW,238,6.0,9.0,69,0.00,,,0.00,Wunderground v.1.13,2013-10-12 03:18:00,
2013-10-11 22:20:00,68.6,58.4,29.51,SE,144,6.0,6.0,70,0.00,,,0.00,Wunderground v.1.13,2013-10-12 03:20:00,
2013-10-11 22:21:00,68.5,58.3,29.51,ESE,106,6.0,6.0,70,0.00,,,0.00,Wunderground v.1.13,2013-10-12 03:21:00,
2013-10-11 22:23:00,68.4,58.6,29.51,East,101,6.0,12.0,71,0.00,,,0.00,Wunderground v.1.13,2013-10-12 03:23:00,
2013-10-11 22:24:00,68.3,58.5,29.52,ESE,117,6.0,12.0,71,0.00,,,0.00,Wunderground v.1.13,2013-10-12 03:24:00,
2013-10-11 22:25:00,68.3,58.9,29.52,SE,143,6.0,6.0,72,0.00,,,0.00,Wunderground v.1.13,2013-10-12 03:25:00,
2013-10-11 22:26:00,68.2,58.8,29.52,East,90,6.0,7.0,72,0.00,,,0.00,Wunderground v.1.13,2013-10-12 03:26:00,
2013-10-11 22:29:00,67.7,59.1,29.52,ESE,120,6.0,11.0,74,0.00,,,0.00,Wunderground v.1.13,2013-10-12 03:29:00,
2013-10-11 22:31:00,67.4,59.2,29.52,ESE,115,7.0,7.0,75,0.00,,,0.00,Wunderground v.1.13,2013-10-12 03:31:00,
2013-10-11 22:33:00,67.1,59.6,29.52,South,176,7.0,9.0,77,0.00,,,0.00,Wunderground v.1.13,2013-10-12 03:33:00,
2013-10-11 22:36:00,66.7,59.6,29.54,South,186,7.0,7.0,78,0.00,,,0.00,Wunderground v.1.13,2013-10-12 03:36:00,
2013-10-11 22:37:00,66.5,59.8,29.54,ESE,107,7.0,7.0,79,0.00,,,0.00,Wunderground v.1.13,2013-10-12 03:37:00,
2013-10-11 22:38:00,66.2,59.5,29.54,SE,141,7.0,9.0,79,0.00,,,0.00,Wunderground v.1.13,2013-10-12 03:38:00,
2013-10-11 22:39:00,65.9,59.2,29.54,SSW,210,7.0,9.0,79,0.00,,,0.00,Wunderground v.1.13,2013-10-12 03:39:00,
2013-10-11 22:42:00,65.3,59.0,29.54,South,189,7.0,7.0,80,0.00,,,0.00,Wunderground v.1.13,2013-10-12 03:42:00,
2013-10-11 22:43:00,65.1,58.8,29.54,West,266,7.0,7.0,80,0.00,,,0.00,Wunderground v.1.13,2013-10-12 03:43:00,
2013-10-11 22:45:00,64.8,58.5,29.54,SE,144,6.0,8.0,80,0.00,,,0.00,Wunderground v.1.13,2013-10-12 03:45:00,
2013-10-11 22:47:00,64.5,58.5,29.54,SW,233,6.0,8.0,81,0.00,,,0.00,Wunderground v.1.13,2013-10-12 03:47:00,
2013-10-11 22:48:00,64.4,58.4,29.54,ESE,115,5.0,8.0,81,0.00,,,0.00,Wunderground v.1.13,2013-10-12 03:48:00,
2013-10-11 22:49:00,64.3,58.3,29.54,SSW,206,5.0,8.0,81,0.00,,,0.00,Wunderground v.1.13,2013-10-12 03:49:00,
2013-10-11 22:52:00,64.0,58.4,29.54,East,98,4.0,5.0,82,0.00,,,0.00,Wunderground v.1.13,2013-10-12 03:52:00,
2013-10-11 22:53:00,63.9,58.3,29.54,East,98,4.0,5.0,82,0.00,,,0.00,Wunderground v.1.13,2013-10-12 03:53:00,
2013-10-11 22:54:00,63.8,58.2,29.54,SW,234,4.0,6.0,82,0.00,,,0.00,Wunderground v.1.13,2013-10-12 03:54:00,
2013-10-11 22:55:00,63.7,58.1,29.55,SSE,168,4.0,4.0,82,0.00,,,0.00,Wunderground v.1.13,2013-10-12 03:55:00,
2013-10-11 22:59:00,63.5,58.2,29.55,SE,130,3.0,7.0,83,0.00,,,0.00,Wunderground v.1.13,2013-10-12 03:59:00,
2013-10-11 23:00:00,63.4,58.1,29.55,East,87,3.0,3.0,83,0.00,,,0.00,Wunderground v.1.13,2013-10-12 04:00:00,
2013-10-11 23:01:00,63.4,58.1,29.55,ESE,119,3.0,4.0,83,0.00,,,0.00,Wunderground v.1.13,2013-10-12 04:01:00,
2013-10-11 23:02:00,63.3,58.0,29.55,West,269,3.0,4.0,83,0.00,,,0.00,Wunderground v.1.13,2013-10-12 04:02:00,
2013-10-11 23:03:00,63.3,58.0,29.55,SSW,206,3.0,4.0,83,0.00,,,0.00,Wunderground v.1.13,2013-10-12 04:03:00,
2013-10-11 23:05:00,63.2,57.9,29.55,SW,218,4.0,6.0,83,0.00,,,0.00,Wunderground v.1.13,2013-10-12 04:05:00,
2013-10-11 23:06:00,63.2,57.9,29.55,SSW,202,4.0,6.0,83,0.00,,,0.00,Wunderground v.1.13,2013-10-12 04:06:00,
2013-10-11 23:08:00,63.1,57.9,29.55,WSW,256,4.0,6.0,83,0.00,,,0.00,Wunderground v.1.13,2013-10-12 04:08:00,
2013-10-11 23:11:00,63.1,57.9,29.55,WSW,256,4.0,5.0,83,0.00,,,0.00,Wunderground v.1.13,2013-10-12 04:11:00,
2013-10-11 23:12:00,63.0,57.8,29.55,SW,236,4.0,5.0,83,0.00,,,0.00,Wunderground v.1.13,2013-10-12 04:12:00,
2013-10-11 23:13:00,63.0,57.8,29.55,East,101,4.0,5.0,83,0.00,,,0.00,Wunderground v.1.13,2013-10-12 04:13:00,
2013-10-11 23:14:00,62.9,57.7,29.55,SSW,211,4.0,5.0,83,0.00,,,0.00,Wunderground v.1.13,2013-10-12 04:14:00,
2013-10-11 23:18:00,62.8,57.6,29.55,WSW,257,4.0,6.0,83,0.00,,,0.00,Wunderground v.1.13,2013-10-12 04:18:00,
2013-10-11 23:19:00,62.7,57.5,29.55,NW,322,4.0,6.0,83,0.00,,,0.00,Wunderground v.1.13,2013-10-12 04:19:00,
2013-10-11 23:22:00,62.5,57.3,29.55,SE,134,3.0,4.0,83,0.00,,,0.00,Wunderground v.1.13,2013-10-12 04:22:00,
2013-10-11 23:24:00,62.4,57.2,29.56,SW,226,3.0,4.0,83,0.00,,,0.00,Wunderground v.1.13,2013-10-12 04:24:00,
2013-10-11 23:26:00,62.3,57.1,29.56,SW,222,3.0,3.0,83,0.00,,,0.00,Wunderground v.1.13,2013-10-12 04:26:00,
2013-10-11 23:27:00,62.2,57.0,29.56,South,173,2.0,3.0,83,0.00,,,0.00,Wunderground v.1.13,2013-10-12 04:27:00,
2013-10-11 23:28:00,62.2,57.0,29.56,West,274,2.0,15.0,83,0.00,,,0.00,Wunderground v.1.13,2013-10-12 04:28:00,
2013-10-11 23:32:00,61.8,56.2,29.56,SSW,208,3.0,5.0,82,0.00,,,0.00,Wunderground v.1.13,2013-10-12 04:32:00,
2013-10-11 23:33:00,61.8,56.2,29.56,SSW,208,3.0,5.0,82,0.00,,,0.00,Wunderground v.1.13,2013-10-12 04:33:00,
2013-10-11 23:35:00,61.7,56.5,29.56,SSW,207,2.0,5.0,83,0.00,,,0.00,Wunderground v.1.13,2013-10-12 04:35:00,
2013-10-11 23:39:00,61.4,56.2,29.57,SSE,163,3.0,5.0,83,0.00,,,0.00,Wunderground v.1.13,2013-10-12 04:39:00,
2013-10-11 23:41:00,61.3,56.1,29.57,SE,137,2.0,3.0,83,0.00,,,0.00,Wunderground v.1.13,2013-10-12 04:41:00,
2013-10-11 23:42:00,61.3,56.1,29.57,SE,137,2.0,3.0,83,0.00,,,0.00,Wunderground v.1.13,2013-10-12 04:42:00,
2013-10-11 23:45:00,61.1,55.9,29.57,WSW,249,3.0,3.0,83,0.00,,,0.00,Wunderground v.1.13,2013-10-12 04:45:00,
2013-10-11 23:46:00,61.1,55.9,29.57,SW,235,2.0,3.0,83,0.00,,,0.00,Wunderground v.1.13,2013-10-12 04:46:00,
2013-10-11 23:48:00,61.0,55.8,29.57,NNW,329,3.0,3.0,83,0.00,,,0.00,Wunderground v.1.13,2013-10-12 04:48:00,
2013-10-11 23:49:00,60.9,55.7,29.57,ESE,123,3.0,3.0,83,0.00,,,0.00,Wunderground v.1.13,2013-10-12 04:49:00,
2013-10-11 23:52:00,60.8,55.6,29.57,SE,127,2.0,3.0,83,0.00,,,0.00,Wunderground v.1.13,2013-10-12 04:52:00,
2013-10-11 23:53:00,60.7,55.5,29.57,SSE,166,2.0,4.0,83,0.00,,,0.00,Wunderground v.1.13,2013-10-12 04:53:00,
2013-10-11 23:54:00,60.7,55.5,29.57,South,169,2.0,4.0,83,0.00,,,0.00,Wunderground v.1.13,2013-10-12 04:54:00,
2013-10-11 23:57:00,60.5,55.3,29.57,South,183,2.0,3.0,83,0.00,,,0.00,Wunderground v.1.13,2013-10-12 04:57:00,
2013-10-11 23:58:00,60.4,55.2,29.57,South,183,2.0,3.0,83,0.00,,,0.00,Wunderground v.1.13,2013-10-12 04:58:00,
2013-10-11 23:59:00,60.4,55.2,29.57,South,182,1.0,3.0,83,0.00,,,0.00,Wunderground v.1.13,2013-10-12 04:59:00,